ECMWFFLT2_850_thetae_000.txt.gz
Theta_e
334 334 334 333 332 331 330 328 328 330 331 333 333 333 331 329 328 328 328 327 326 324 322 325 324 320 319 317 316 317 321 322 322 320 321 323 323 321 319 324 327 325 326 321 318 327 329 327 328 326 324 323 322 325 324 321 320 318 315 311 310 309
331 333 335 333 333 333 333 331 330 331 330 331 333 332 331 329 327 328 329 326 322 319 322 325 324 321 321 321 321 321 322 322 322 322 323 325 324 323 320 322 326 327 327 324 320 326 329 328 328 327 326 325 322 325 326 324 322 320 318 314 312 310
329 331 332 331 332 332 333 332 332 331 330 331 331 331 330 328 327 328 326 323 318 320 325 327 326 324 323 325 326 325 324 323 323 323 323 324 323 322 321 322 325 327 328 326 323 324 328 329 329 328 327 325 324 324 326 325 323 322 323 319 316 314
329 329 330 330 330 330 331 332 332 332 331 331 330 329 329 326 328 327 324 321 318 320 325 326 327 327 326 328 330 328 325 325 324 324 324 324 323 321 320 322 324 325 327 328 326 324 325 329 330 328 327 327 326 325 326 327 323 323 325 323 320 318
328 329 329 329 330 330 330 330 331 331 331 331 330 329 328 326 327 327 325 323 319 319 324 324 326 328 329 330 330 329 326 324 325 325 324 323 324 322 318 320 323 324 325 327 328 326 324 327 329 327 327 327 327 325 326 327 324 322 324 324 322 321
325 326 327 328 329 330 329 329 329 330 330 331 331 329 329 328 328 328 328 325 319 318 322 324 327 328 329 330 329 329 326 323 324 324 323 324 325 322 317 317 321 323 323 324 327 328 325 325 327 327 326 327 328 327 326 326 324 323 324 324 323 321
320 321 322 325 326 328 329 329 328 328 330 331 331 328 327 328 329 330 328 326 322 320 322 324 327 327 329 331 328 326 326 322 322 324 323 324 324 319 315 315 318 320 322 321 324 328 327 325 325 324 325 327 328 327 326 325 324 324 324 324 322 320
319 318 319 319 319 321 325 328 328 327 329 332 330 325 323 325 327 328 326 326 325 323 323 325 327 329 329 331 328 324 324 321 321 323 323 324 322 317 314 314 315 316 320 320 321 326 328 326 324 322 323 327 328 327 326 324 323 323 323 322 321 319
320 319 318 317 316 315 318 326 328 327 329 331 330 324 319 321 323 324 325 326 327 325 324 326 329 331 330 330 329 324 322 320 320 322 322 324 322 318 315 313 314 315 318 319 320 325 328 326 325 321 322 327 328 327 325 324 324 323 321 320 318 318
320 320 319 318 317 316 316 321 327 328 329 330 331 325 319 321 324 325 325 324 325 325 325 328 330 332 331 331 329 325 320 318 320 322 323 324 321 321 319 315 316 318 318 319 321 325 327 325 324 321 321 326 328 326 325 324 322 322 320 318 316 315
319 319 319 319 318 318 316 319 323 327 329 330 331 328 322 322 324 325 326 324 323 323 326 329 331 333 333 331 329 326 322 319 320 322 323 324 321 323 324 319 319 322 322 323 323 324 324 324 323 321 321 325 328 326 325 324 322 322 320 318 316 315
318 318 318 318 318 318 318 319 321 324 327 330 330 330 327 325 324 324 324 324 324 324 326 329 331 332 332 331 330 328 327 325 323 322 323 324 322 323 325 324 322 323 325 325 325 323 323 322 323 322 321 323 326 326 325 324 323 322 321 319 318 317
315 316 316 316 318 319 320 321 321 322 325 329 330 330 329 328 327 324 322 322 325 326 327 328 329 330 330 330 329 328 328 328 326 323 323 324 324 323 324 325 325 324 325 326 326 325 324 322 321 323 322 323 325 326 325 324 323 321 320 319 319 320
312 313 313 314 317 320 321 322 323 324 325 327 329 329 329 330 329 327 325 323 324 326 327 327 328 328 328 329 328 327 327 327 328 325 324 324 324 324 324 325 325 325 325 326 326 325 325 324 322 322 322 322 323 323 323 322 321 320 320 321 321 322
311 311 312 314 317 319 321 322 323 323 324 324 326 326 327 328 328 328 328 326 325 326 327 328 328 326 326 328 328 327 326 327 328 327 327 326 325 325 324 325 326 326 326 326 326 326 325 325 324 322 321 320 320 321 322 321 321 322 322 323 324 324
311 310 312 314 316 318 320 321 321 321 321 321 322 322 323 324 325 326 327 327 327 328 328 329 329 327 325 326 327 327 328 328 328 329 329 329 328 328 326 324 325 326 327 327 328 328 326 326 325 324 323 323 323 323 324 324 324 323 324 324 325 325
310 309 310 311 312 315 316 316 316 317 318 319 320 320 321 321 322 323 323 324 324 325 327 328 329 328 326 326 327 327 328 328 329 329 328 329 330 330 327 325 325 326 327 327 328 328 328 327 326 325 325 324 325 325 326 326 326 325 325 325 324 323
309 308 308 308 309 309 309 310 311 312 313 316 318 319 320 320 320 321 321 321 322 322 324 326 327 327 327 327 327 327 327 328 328 329 329 329 330 330 329 327 327 326 326 327 327 328 328 328 327 326 326 325 325 326 326 327 327 327 327 326 325 323
309 308 307 307 306 306 306 307 307 307 309 312 315 316 317 317 318 318 318 318 319 319 321 323 323 324 325 325 326 328 329 329 329 330 330 330 331 331 330 329 328 327 327 328 328 328 328 328 327 327 328 326 325 326 326 327 328 328 328 327 326 324
310 308 307 306 306 306 306 305 305 305 307 308 310 310 310 310 310 310 311 311 311 313 314 317 319 320 320 321 324 326 327 328 328 329 330 329 328 329 330 330 329 328 329 328 326 326 326 326 327 327 328 327 326 326 326 327 328 328 328 328 327 326
310 309 308 307 306 306 306 305 306 307 306 306 306 306 306 306 306 306 306 306 306 307 307 308 311 314 316 317 319 321 323 325 327 327 328 328 327 328 330 331 329 327 328 326 324 325 326 324 325 327 328 327 327 327 326 327 328 328 329 328 329 328
311 310 308 307 307 307 307 307 308 307 306 306 306 306 306 306 306 306 305 305 304 304 303 304 304 306 310 312 315 319 320 322 324 324 325 326 327 329 331 332 330 327 326 326 324 324 325 325 325 326 326 327 327 327 327 327 328 328 328 329 329 329
311 310 308 308 308 308 309 308 308 308 307 306 307 307 307 306 306 306 305 305 304 303 303 302 302 303 306 308 310 315 319 320 320 321 322 323 324 326 328 330 331 329 328 327 325 324 323 325 326 326 325 326 327 328 327 328 328 328 328 329 329 329
313 310 309 308 309 310 309 308 308 308 308 308 308 308 307 307 307 307 306 306 305 305 303 302 302 302 303 305 307 311 316 319 320 320 321 321 322 323 324 325 326 328 329 328 327 325 325 326 328 327 326 326 327 328 328 328 328 328 329 329 329 329
313 310 310 310 310 311 309 308 308 308 309 309 308 308 308 308 307 307 307 306 306 306 305 303 303 303 303 305 307 309 312 315 316 317 317 318 319 320 321 321 322 324 325 325 326 327 327 327 328 328 327 327 327 328 328 328 328 328 328 329 328 328
314 311 310 310 311 311 310 308 308 308 308 309 308 308 308 308 308 308 308 307 306 306 306 305 303 304 305 305 306 307 309 310 310 310 310 311 312 314 316 318 320 321 321 322 323 324 325 326 327 327 327 327 327 327 326 326 327 328 328 328 327 327
315 312 310 311 311 311 311 309 308 308 308 309 308 308 309 309 308 308 308 307 307 306 306 305 304 304 304 305 305 306 307 308 307 307 307 307 308 310 312 314 317 318 319 320 321 321 322 324 325 326 326 326 326 325 325 326 327 327 328 327 327 327
316 312 311 311 311 311 311 310 308 308 309 309 308 309 309 309 309 308 308 308 307 306 306 305 305 304 304 304 304 305 306 307 308 308 308 308 308 310 312 313 314 315 316 317 317 317 318 320 322 323 324 324 324 324 324 325 326 326 326 326 326 326
317 314 312 311 311 311 311 310 308 308 309 309 309 309 309 310 309 309 309 308 307 306 306 306 305 305 304 304 303 303 304 305 305 305 304 305 305 306 307 309 310 312 314 314 315 314 313 314 315 316 318 319 320 321 321 323 324 325 325 324 325 325
317 315 313 312 311 310 310 310 309 308 309 310 310 309 310 310 310 310 309 308 307 307 306 306 306 305 305 305 304 304 303 304 303 303 303 303 302 303 303 303 304 306 308 311 313 313 313 313 312 312 312 312 312 314 316 318 320 322 323 322 323 323
316 316 315 313 312 310 310 310 309 308 309 310 310 310 310 310 310 310 310 309 308 307 307 306 306 306 305 305 304 304 304 304 304 304 303 303 303 303 302 302 302 302 303 305 307 308 310 311 312 312 312 311 311 311 312 314 317 319 320 321 322 322
317 317 316 314 313 311 310 310 309 309 309 310 311 310 310 310 310 310 310 310 309 308 307 307 306 306 305 305 305 305 305 305 304 304 303 303 303 303 303 302 302 302 302 302 302 303 304 305 307 308 310 311 312 312 313 314 315 316 317 319 320 320
317 317 316 315 314 312 311 310 310 309 309 310 311 310 310 310 309 309 310 310 310 309 308 307 306 306 306 306 305 305 305 305 304 304 303 304 304 304 304 303 303 303 303 302 302 301 301 302 302 303 304 306 307 309 311 313 314 315 315 316 317 318
318 318 317 316 315 314 312 311 310 310 310 310 311 311 310 310 309 309 309 309 310 309 309 308 307 306 306 306 305 305 305 305 304 303 303 303 304 304 304 303 303 303 303 303 302 302 302 301 302 302 302 302 302 304 305 308 310 312 313 313 314 315
318 318 318 317 316 316 314 312 311 310 310 310 311 311 311 310 310 309 309 309 310 310 309 308 307 307 306 306 306 306 305 305 304 303 303 303 304 304 304 304 303 303 303 303 302 302 302 302 302 302 302 302 302 302 302 303 304 305 307 309 310 312
319 319 318 317 317 316 315 314 312 311 311 310 311 311 311 311 310 309 309 309 310 310 310 309 308 307 307 306 306 306 305 305 304 304 303 303 304 304 304 304 304 303 303 302 302 302 302 302 302 302 302 302 302 302 302 302 302 302 303 304 306 309
318 318 317 317 317 316 316 315 313 311 311 311 311 312 312 312 310 309 309 309 310 310 310 309 309 308 307 307 306 306 306 306 305 304 303 303 304 304 304 304 304 304 303 303 302 302 301 301 301 301 301 301 301 302 302 302 302 303 303 303 303 305

ECMWFFLT2_850_thetae_003.txt.gz
Theta_e
330 329 329 332 332 332 332 333 333 333 333 334 335 337 336 334 333 331 330 330 331 330 330 329 326 327 324 321 319 317 318 320 320 320 319 319 318 320 322 324 325 325 324 320 318 321 326 327 325 321 321 325 326 325 325 324 320 317 316 314 310 309
333 332 331 332 333 333 332 332 332 331 332 333 334 336 336 334 332 330 329 329 329 329 329 327 325 326 323 319 318 316 317 320 322 322 321 323 323 321 322 323 325 326 325 322 317 316 323 327 326 324 321 323 325 326 326 325 322 319 318 317 313 310
333 334 333 333 333 334 333 331 333 332 332 333 334 335 334 332 330 329 329 328 328 327 325 323 324 326 324 321 321 321 322 322 322 323 322 324 324 322 322 321 323 327 326 324 320 316 322 327 327 326 325 323 323 326 327 325 323 322 321 320 317 312
330 332 333 333 332 334 334 332 332 333 332 332 333 334 333 331 329 329 328 329 327 322 321 322 325 327 325 325 326 327 327 326 324 324 323 324 324 322 321 322 323 326 327 326 323 317 321 327 327 327 328 326 324 325 328 326 323 323 323 322 320 316
329 330 331 331 331 332 333 333 333 333 331 331 333 332 331 331 329 328 328 328 324 319 320 324 326 327 327 328 328 329 328 327 326 325 325 325 325 324 321 322 323 325 327 328 326 321 321 326 327 327 329 328 326 325 328 327 324 323 324 323 322 318
328 328 330 330 330 331 331 332 333 332 332 331 332 330 330 330 327 327 328 326 322 318 319 323 325 326 329 330 330 331 329 327 326 326 326 325 326 325 322 321 323 324 325 327 328 326 323 324 326 327 328 328 327 326 327 328 325 323 324 323 322 320
325 325 326 328 329 330 331 331 331 331 332 331 331 330 329 329 326 326 327 326 324 321 318 320 323 325 328 329 330 330 329 327 325 326 326 324 325 324 320 318 321 323 324 324 326 328 326 325 325 326 327 327 327 326 327 327 325 324 325 324 322 320
319 320 321 323 324 325 327 329 329 330 331 331 331 331 330 328 328 328 327 328 327 323 318 320 322 325 327 328 330 329 327 327 325 325 326 324 324 323 317 315 318 322 323 323 324 327 328 327 325 325 327 327 326 327 327 326 325 325 325 323 322 320
316 316 316 316 317 317 319 323 328 330 330 331 331 331 330 327 327 329 329 329 329 325 322 322 322 324 328 329 331 330 327 327 325 324 325 323 324 323 317 313 315 320 322 322 323 324 327 328 326 325 325 325 325 327 327 326 325 324 324 322 321 320
316 315 315 315 314 313 313 316 323 329 330 330 331 331 329 326 324 325 327 328 326 326 325 324 323 323 328 330 331 331 328 327 326 323 322 323 323 322 317 313 314 318 320 320 321 322 324 327 328 326 325 323 323 326 327 326 325 324 323 321 320 320
317 317 316 316 314 313 313 314 318 326 329 329 330 331 330 327 323 321 323 326 326 326 326 325 325 326 329 330 330 332 330 328 327 324 321 323 323 322 318 313 313 315 317 319 319 321 324 326 327 326 325 323 322 325 327 326 325 323 322 321 320 320
318 318 317 317 314 313 314 315 316 321 327 329 330 330 330 327 323 323 324 326 327 327 326 324 324 326 327 328 330 332 330 327 327 324 321 323 323 322 320 314 314 316 318 320 322 323 324 326 325 325 325 323 321 323 326 327 325 323 322 321 321 321
316 316 316 315 313 313 315 317 316 319 324 327 329 330 331 328 324 325 325 324 326 326 326 325 325 326 326 328 330 331 330 327 325 324 322 322 322 323 323 318 316 319 320 323 325 325 325 325 325 325 325 324 322 321 324 326 326 324 324 323 322 322
313 313 313 312 311 313 316 319 319 320 321 325 328 329 330 329 326 327 326 325 325 324 325 326 326 326 326 327 329 330 330 327 325 325 323 322 323 323 324 322 319 322 323 324 326 326 326 326 326 326 325 325 323 321 323 325 326 326 325 323 322 323
311 311 310 309 310 311 315 319 321 322 323 324 326 327 328 328 328 328 329 328 328 327 326 326 326 326 326 325 327 329 329 328 327 326 324 323 323 323 323 324 323 323 324 325 326 327 327 326 326 326 325 324 323 322 322 324 325 325 323 322 322 324
311 310 309 309 309 310 313 316 318 320 321 321 322 323 323 324 325 326 327 328 328 328 327 327 327 327 328 326 326 328 328 329 329 327 325 324 323 323 323 324 324 324 325 326 326 327 327 326 326 326 325 324 323 322 321 322 323 322 321 322 324 325
311 310 309 308 308 310 311 314 315 317 318 319 320 320 320 321 321 322 324 325 325 325 325 326 327 327 328 327 326 327 328 329 329 327 326 326 325 325 324 324 324 324 325 325 326 327 327 327 327 326 326 324 323 321 320 321 322 323 324 324 325 325
311 310 308 308 308 308 309 310 313 315 317 318 319 319 320 320 320 320 321 321 322 323 324 324 325 326 327 327 327 327 328 329 329 328 328 327 327 327 326 326 326 326 325 325 326 326 327 328 328 327 326 325 324 322 322 323 325 325 326 326 326 326
310 309 308 308 307 306 306 307 308 311 313 315 316 316 318 319 319 319 319 319 320 320 321 321 323 324 324 325 326 327 327 328 328 329 329 328 328 328 327 327 328 327 327 327 325 325 326 327 328 328 327 326 326 325 324 325 325 326 326 327 327 327
310 309 309 308 307 306 305 305 305 307 309 311 312 313 313 314 314 313 314 315 315 314 314 315 316 319 320 321 323 324 326 328 328 328 329 329 329 328 327 328 326 324 325 327 326 326 327 327 328 328 328 327 326 326 326 325 325 326 326 327 328 328
310 309 308 308 307 307 306 305 305 307 308 307 308 308 307 307 307 307 307 307 308 308 307 307 308 310 314 316 318 320 322 324 324 325 327 328 328 328 327 327 325 322 323 324 324 326 327 327 327 327 326 326 327 327 327 326 326 326 326 327 328 328
310 309 308 308 307 307 308 307 306 306 306 306 306 306 306 306 305 305 305 305 305 305 304 304 304 305 308 311 313 316 317 317 318 321 324 325 326 327 327 327 327 326 324 322 324 327 326 325 324 324 325 324 325 326 326 326 326 327 327 327 328 328
311 309 308 307 307 308 309 308 307 306 306 306 307 306 306 306 306 306 305 305 305 305 304 303 303 303 305 308 310 313 315 316 316 317 318 319 321 324 326 327 328 327 325 325 327 326 322 323 324 323 324 325 325 325 326 326 326 326 326 326 327 328
311 309 309 308 308 309 309 307 307 307 307 307 307 307 307 306 306 306 306 306 306 305 304 303 302 302 303 305 307 310 313 316 317 317 316 316 317 321 323 325 325 326 327 328 328 324 322 323 323 322 324 326 326 325 326 325 324 323 322 324 327 328
311 309 309 309 309 310 309 308 307 307 308 307 307 307 307 307 307 307 306 306 306 305 304 303 302 302 302 303 305 307 311 314 316 317 317 316 316 318 320 321 323 324 326 327 326 326 326 325 324 323 325 327 327 327 327 325 322 321 321 322 324 326
310 310 309 310 310 310 309 308 308 308 308 308 308 308 308 308 308 307 307 306 306 305 304 304 303 302 302 303 304 305 308 310 311 311 311 311 311 312 314 317 320 322 323 324 324 325 326 326 326 325 326 327 327 327 327 326 323 321 321 321 322 325
311 310 310 310 310 310 310 308 308 308 308 308 308 308 308 308 308 308 307 306 306 305 305 304 304 303 303 303 304 305 306 307 307 308 308 308 307 308 309 312 316 318 320 322 322 323 325 325 325 326 326 326 326 327 327 326 324 323 323 324 324 325
311 310 310 311 311 310 310 309 308 308 308 308 308 309 309 309 308 308 307 307 306 305 305 304 304 303 303 303 304 305 306 306 306 306 307 307 307 308 308 310 312 314 316 318 319 321 321 322 323 325 326 326 326 326 325 325 325 325 325 325 325 324
311 310 310 311 311 311 310 309 308 308 308 308 309 309 309 309 309 308 308 307 307 306 305 305 304 304 303 303 303 304 304 304 304 304 304 304 304 305 305 306 307 309 311 313 315 316 317 318 319 321 322 323 323 324 324 324 324 324 325 325 325 324
312 311 311 312 312 311 310 310 308 308 308 309 309 309 309 309 310 309 308 308 307 307 306 305 305 304 304 304 303 303 303 303 303 303 303 303 303 303 303 303 303 304 305 307 309 311 312 313 314 314 315 316 317 317 318 319 320 320 322 323 323 323
313 311 312 312 312 312 311 310 309 308 308 309 309 309 309 309 310 310 309 308 308 307 306 306 305 305 305 304 304 304 304 304 304 304 303 303 303 303 302 303 302 302 302 303 304 305 307 309 310 310 310 310 311 311 310 311 312 313 315 318 320 320
314 313 313 313 313 313 312 311 310 309 308 309 309 309 309 310 310 310 310 309 308 308 307 306 305 305 305 305 305 305 304 304 304 303 303 303 303 304 304 304 303 303 303 302 302 302 303 304 305 306 307 308 309 309 309 309 309 310 311 313 315 317
316 315 315 314 313 313 312 312 311 309 308 309 309 309 309 310 310 310 310 310 309 308 308 307 306 306 306 305 305 305 305 304 304 303 304 304 304 304 304 304 304 304 304 303 303 302 302 302 302 303 303 304 305 306 306 307 307 308 309 310 312 314
317 317 316 315 314 314 313 313 313 311 309 308 309 309 310 310 310 311 311 310 310 310 309 308 307 306 306 306 305 305 305 304 304 304 304 304 304 304 304 304 304 304 304 304 303 303 303 302 302 302 302 302 302 303 303 303 304 304 305 307 308 310
317 317 316 316 315 315 314 314 314 312 310 309 309 309 310 310 311 311 311 311 311 310 310 308 307 307 306 306 306 305 305 305 304 304 303 304 304 304 304 304 304 304 304 304 304 304 303 303 303 302 302 302 302 302 302 302 302 302 303 303 304 305
317 317 316 316 314 314 313 313 314 314 312 310 309 308 309 310 311 311 311 311 311 311 311 309 308 307 306 306 306 305 306 305 305 304 304 304 304 304 304 304 304 304 304 304 304 304 303 303 303 303 302 302 302 302 302 301 302 302 302 302 303 303
317 317 316 315 314 313 313 313 313 313 312 311 310 309 309 310 311 312 312 311 312 311 312 311 309 308 307 306 306 305 306 305 305 305 304 304 304 304 304 304 304 304 304 304 304 304 303 303 303 302 302 302 302 302 302 302 302 302 302 301 302 302

ECMWFFLT2_850_thetae_006.txt.gz
Theta_e
334 337 337 336 335 336 336 337 337 336 336 336 335 334 333 333 332 330 331 331 331 332 331 329 329 329 328 327 324 321 320 320 320 320 319 319 318 319 323 326 325 325 324 323 321 319 319 318 320 322 324 326 326 327 329 330 329 327 328 322 323 323
332 335 336 336 336 335 336 336 336 336 336 336 336 335 335 334 333 332 331 331 333 335 333 332 331 330 330 329 325 320 318 317 319 321 320 320 320 321 322 324 326 326 325 324 322 320 320 319 320 321 323 325 326 329 330 330 329 328 328 325 324 318
334 334 335 336 336 335 336 336 336 336 335 335 336 336 336 335 335 334 332 331 334 336 334 334 332 328 328 328 325 322 320 318 319 322 321 322 323 324 323 323 325 327 326 326 324 323 324 323 321 321 322 325 328 330 329 329 330 330 328 326 324 314
336 335 335 335 335 336 337 338 338 337 334 334 334 335 337 336 336 337 335 333 335 335 332 332 329 326 327 326 326 325 324 323 322 323 323 323 325 325 324 324 325 326 325 326 327 326 326 326 325 324 324 326 329 329 327 327 329 331 329 327 325 317
336 335 335 335 335 336 337 338 338 338 335 334 334 337 339 338 338 337 335 333 335 333 329 328 326 326 328 328 328 328 328 328 328 328 325 325 328 328 325 325 326 325 325 327 328 327 326 326 327 326 326 326 328 328 327 329 328 330 330 329 326 318
334 334 335 334 334 334 335 337 337 336 335 335 337 338 338 338 336 333 332 334 334 332 326 327 326 327 331 331 329 329 330 330 330 331 329 328 329 329 327 326 328 327 327 328 329 328 326 325 326 327 327 326 328 328 328 330 329 328 330 330 326 319
332 332 333 332 332 332 332 335 336 334 334 336 337 338 337 336 334 330 330 332 331 329 326 326 326 326 330 331 329 330 331 330 330 331 331 330 329 328 328 328 328 327 327 329 329 329 327 326 326 327 328 328 328 328 329 330 330 329 329 330 327 320
329 328 329 330 332 332 333 333 333 333 335 336 336 336 337 336 335 331 328 329 328 328 328 326 326 325 328 330 329 329 330 329 330 331 331 330 328 328 328 327 326 325 326 328 329 329 328 327 327 327 327 328 328 328 328 329 330 330 329 329 328 322
327 325 325 326 328 330 331 333 332 332 333 334 335 336 334 334 334 334 331 330 329 328 327 326 327 327 326 328 329 329 331 329 328 330 330 329 328 327 327 327 325 325 325 326 328 328 327 328 328 327 327 327 327 328 327 328 329 329 329 328 328 325
327 326 325 323 324 325 325 328 331 332 332 332 334 333 331 330 331 335 334 333 333 330 327 327 331 329 325 327 330 330 330 330 329 329 330 328 327 327 327 327 326 325 325 325 327 327 327 328 328 328 327 326 327 328 327 327 328 329 329 328 328 326
324 321 324 325 323 321 320 323 327 330 332 332 332 330 331 331 329 332 334 334 335 332 328 328 331 328 325 330 332 330 330 330 330 328 328 326 326 327 327 326 325 325 325 326 326 327 327 327 328 328 327 327 326 327 328 328 328 328 328 328 328 328
321 314 321 328 325 323 322 323 324 326 332 334 331 330 332 332 330 330 330 329 330 329 327 327 327 326 329 333 331 329 329 329 330 329 326 324 325 326 326 325 324 324 324 325 325 324 325 326 327 327 327 327 326 327 327 327 328 328 328 327 328 328
322 316 321 327 326 326 326 325 324 323 330 332 330 330 332 331 330 330 327 325 326 326 326 326 326 327 329 330 328 328 329 330 331 329 326 324 324 326 326 325 323 323 322 323 323 322 321 323 325 326 326 327 327 327 327 327 327 328 328 327 327 328
322 321 321 320 321 325 325 325 324 322 326 330 329 330 330 330 331 330 326 326 326 326 327 327 328 327 327 327 326 327 328 329 330 328 326 324 325 326 327 326 325 324 323 323 324 323 322 322 323 326 326 326 328 327 327 327 327 327 328 327 328 328
319 320 317 312 315 321 321 323 325 324 323 326 329 330 329 329 330 329 327 328 327 325 326 327 328 328 326 326 326 327 326 328 330 328 326 324 325 326 327 327 327 327 326 325 325 323 323 324 324 325 325 325 326 327 327 326 326 326 327 327 327 327
314 315 313 310 312 315 316 319 324 324 323 323 326 328 329 328 329 330 329 331 329 327 327 327 327 327 326 326 326 327 326 327 330 328 326 325 325 326 327 327 327 327 328 327 327 325 325 326 326 326 326 326 325 326 326 327 326 324 326 327 327 327
311 310 310 309 309 310 313 315 317 319 320 322 324 325 327 326 327 328 328 329 327 327 327 327 327 327 327 328 328 327 326 327 329 328 328 326 325 326 326 326 326 325 326 326 327 328 328 327 327 327 327 327 326 326 325 326 327 325 326 326 325 326
310 309 309 308 308 309 311 312 314 316 318 320 321 321 324 324 324 324 324 325 324 324 326 326 326 326 327 328 328 328 326 326 327 328 328 327 326 326 325 325 325 324 325 325 325 326 327 326 326 327 326 326 327 327 327 327 327 326 326 326 325 325
310 309 309 308 307 308 308 310 314 317 319 320 320 319 322 323 322 321 321 321 322 323 325 325 325 325 326 327 328 328 327 327 328 328 329 328 326 325 326 325 325 325 325 326 327 326 326 326 325 325 326 326 326 327 329 329 328 327 327 327 327 327
310 309 309 308 308 312 314 315 317 320 322 323 323 321 321 322 322 320 319 318 318 319 320 320 320 320 321 323 324 326 327 327 328 328 328 328 327 326 325 326 327 327 327 327 327 327 328 327 325 325 325 326 326 326 328 330 328 328 328 328 328 328
310 309 309 308 310 315 318 319 319 320 321 322 322 320 319 318 317 316 313 312 312 313 313 312 312 313 315 318 319 322 325 326 327 328 328 328 328 327 326 327 328 328 328 327 326 327 328 327 325 325 325 325 326 326 328 328 328 328 329 329 329 330
311 309 309 308 308 312 316 319 320 320 320 320 319 319 318 313 308 307 306 306 306 306 306 306 307 308 312 316 317 319 321 323 325 325 325 326 327 328 328 328 328 327 327 326 325 326 326 326 325 325 324 323 325 325 326 327 327 328 329 329 330 330
311 309 308 308 308 309 312 314 316 315 316 317 315 315 314 308 305 305 304 304 304 304 306 309 311 311 314 318 319 320 318 318 321 321 321 323 325 327 328 328 327 327 328 327 327 326 325 325 326 325 323 323 325 325 325 325 326 327 327 327 327 327
311 309 308 308 309 309 309 309 309 309 310 311 309 307 307 306 306 306 305 305 304 304 307 312 315 317 318 319 320 321 319 317 317 317 319 321 323 324 324 326 326 327 328 329 329 326 325 326 325 324 323 323 326 326 326 325 326 326 324 325 326 326
311 310 308 308 309 309 309 308 307 306 307 308 306 306 308 308 307 307 306 306 305 304 306 310 314 316 318 319 319 320 320 319 316 315 319 320 320 321 321 322 324 325 327 329 329 326 326 327 325 325 324 323 325 327 327 326 325 324 323 324 326 326
312 310 308 308 310 309 309 308 307 307 308 309 309 312 313 311 308 309 307 306 306 305 305 309 312 314 317 318 318 318 319 319 318 318 319 320 320 320 319 320 321 323 324 325 326 327 328 328 327 326 325 323 324 326 328 328 327 326 325 324 325 324
312 309 309 309 310 310 309 308 308 308 309 311 314 315 313 309 308 308 307 306 306 305 305 307 309 311 316 318 317 318 318 318 318 317 317 318 319 318 318 319 320 321 323 323 324 325 326 326 326 326 325 325 325 326 328 327 327 327 327 326 326 324
313 310 309 309 310 310 309 308 308 309 310 313 316 313 308 308 308 307 307 307 306 306 306 306 306 308 312 314 314 314 314 313 314 314 314 314 314 314 315 316 315 316 319 321 322 324 324 324 325 325 326 326 326 327 327 327 326 326 326 326 327 326
313 311 310 310 310 310 309 308 308 308 309 312 315 312 309 309 308 307 307 307 306 306 306 305 305 305 306 307 306 306 306 306 307 308 309 308 306 306 307 308 308 308 310 313 316 320 321 321 322 324 325 324 324 324 325 325 325 325 325 325 326 325
314 311 311 311 311 310 310 308 308 308 308 310 311 310 311 310 308 308 307 307 307 307 306 306 305 305 304 305 304 304 304 304 304 304 305 304 303 303 303 303 303 304 304 305 307 310 312 313 315 317 318 320 320 321 322 323 323 323 323 323 324 324
315 311 311 311 311 311 310 309 308 308 308 309 309 309 310 310 309 310 309 308 310 310 307 306 305 305 305 305 305 305 304 304 304 304 304 304 304 304 304 304 304 304 303 303 303 303 303 304 305 306 307 309 313 315 315 317 318 317 316 317 318 319
315 312 312 312 311 311 311 309 308 308 308 309 309 309 309 310 310 310 310 310 311 312 309 307 306 306 305 305 305 305 305 305 304 304 305 304 304 305 305 305 305 305 305 304 304 304 303 303 303 303 303 302 304 305 305 307 308 307 308 309 309 312
317 314 312 312 312 311 311 310 309 308 308 309 309 309 310 311 311 312 313 311 311 313 312 309 307 306 305 305 305 305 305 305 305 305 305 305 305 305 305 305 305 305 305 305 305 305 304 304 304 304 303 303 303 303 302 303 302 303 304 304 307 312
317 315 313 312 312 311 311 311 309 308 308 308 309 309 310 312 312 313 315 312 311 314 314 312 309 306 306 306 305 305 305 305 305 305 304 305 305 305 305 305 305 305 305 305 305 305 304 304 304 304 304 304 303 303 303 303 302 302 303 304 307 310
317 316 314 312 312 312 312 311 310 309 309 308 309 309 309 311 311 313 314 312 312 314 315 314 312 307 306 306 305 306 305 305 305 304 304 305 305 305 305 305 305 305 305 305 305 304 304 304 303 303 303 303 303 303 303 303 303 303 303 304 304 304
317 317 315 313 313 312 312 312 311 310 309 308 309 309 309 310 310 311 312 312 312 313 314 315 313 308 306 307 306 306 306 305 305 305 304 304 304 304 304 304 305 305 305 305 305 304 304 303 303 303 302 302 302 302 302 303 303 303 303 303 303 303
317 317 316 314 313 313 312 312 312 311 310 309 309 309 309 309 310 310 311 312 312 312 312 313 311 309 308 307 306 306 306 306 306 305 305 304 304 304 304 304 304 304 305 305 304 304 304 303 303 303 302 302 302 302 302 301 302 302 302 302 303 302

ECMWFFLT2_850_thetae_009.txt.gz
Theta_e
340 338 338 339 338 339 338 337 336 334 333 333 332 332 331 332 331 331 331 331 330 330 330 330 329 329 328 326 324 324 323 323 322 322 320 319 319 319 320 324 324 324 324 324 323 320 320 321 321 322 322 321 321 321 324 332 331 330 331 329 329 330
340 338 337 337 336 337 339 339 338 336 335 334 333 333 332 331 332 332 332 332 331 331 330 331 331 332 331 330 327 323 320 321 322 321 320 319 319 320 321 324 324 324 324 324 324 322 319 319 321 322 322 320 322 326 330 332 330 329 330 329 330 327
339 339 338 337 337 337 338 338 338 338 337 336 335 334 334 332 333 333 332 333 332 332 332 331 332 332 332 331 330 325 320 319 320 320 321 321 320 321 323 323 323 323 325 324 324 325 324 321 320 320 321 320 324 331 333 332 330 329 329 331 327 320
339 338 338 337 336 337 337 337 336 337 335 335 335 335 335 334 333 334 333 333 332 332 333 333 332 331 331 331 329 326 323 322 321 320 321 323 323 324 325 325 324 324 325 324 324 327 327 325 324 322 321 325 329 332 333 331 331 331 330 331 325 318
339 338 338 336 334 335 336 335 335 335 333 331 331 332 334 334 333 333 333 333 332 331 332 332 332 330 331 332 331 328 328 329 327 326 324 326 329 329 328 328 326 325 325 325 326 328 327 326 327 326 327 330 331 332 332 333 332 331 330 331 326 319
338 338 338 336 334 333 332 332 332 332 332 330 328 329 332 332 332 333 334 333 332 332 332 333 332 331 333 332 332 331 331 331 331 331 329 328 331 332 331 330 329 329 328 328 329 329 326 326 328 327 329 330 331 331 332 333 332 332 331 331 328 321
337 338 338 336 336 334 332 332 331 330 333 333 331 330 330 331 334 333 332 333 334 334 332 332 333 334 334 332 332 333 332 332 332 333 332 330 331 331 331 331 331 331 331 331 331 330 328 328 328 327 328 328 330 331 331 333 332 332 331 331 330 323
336 337 336 336 336 335 335 334 334 332 333 334 334 333 332 334 335 332 331 334 335 334 332 332 334 334 333 333 333 332 332 333 333 333 332 332 331 330 330 330 330 330 330 331 330 331 330 329 328 327 328 328 329 330 331 332 333 332 332 331 330 324
334 334 333 334 336 336 335 336 335 334 333 334 334 334 334 335 334 332 333 336 336 334 333 332 332 333 333 333 333 333 333 333 333 333 331 331 331 330 330 330 329 328 329 329 330 330 330 329 329 327 327 327 328 329 330 331 332 332 332 331 331 327
331 331 331 331 333 334 334 335 335 335 336 335 333 335 336 334 334 334 333 335 335 334 334 334 332 333 333 332 333 332 331 330 331 330 329 330 331 330 330 330 329 328 328 328 328 329 329 329 330 329 327 327 327 328 329 330 331 331 332 331 331 331
328 328 329 329 330 332 332 333 333 334 337 337 335 336 337 335 334 334 333 334 333 333 334 334 333 333 333 331 332 332 329 328 329 330 329 329 331 331 330 329 328 327 327 327 327 327 327 328 329 329 328 327 327 327 328 329 330 331 331 331 330 330
325 322 327 329 329 329 329 329 331 332 334 336 335 335 336 335 334 334 334 333 332 333 333 333 333 332 331 331 332 331 328 327 328 329 330 329 330 329 329 329 327 326 326 326 327 327 327 327 328 328 328 328 327 327 327 328 329 330 330 330 330 330
322 315 326 331 328 329 329 329 329 329 330 333 334 334 335 335 334 333 334 332 332 334 333 331 330 328 329 331 332 331 328 326 326 328 330 330 328 326 327 329 327 326 326 327 327 328 327 327 328 328 328 328 327 327 327 327 328 329 329 329 329 329
324 320 326 327 324 328 329 328 329 328 328 331 334 335 334 334 333 334 335 331 329 331 332 330 329 328 329 330 330 328 326 326 326 328 331 332 329 325 327 329 328 327 328 327 328 328 328 327 327 328 328 328 328 328 327 327 327 327 329 329 329 328
324 324 324 320 320 327 327 327 329 329 328 330 333 335 334 333 332 334 334 331 329 328 330 332 330 330 329 329 330 328 325 326 326 328 332 332 328 326 328 330 329 328 328 328 329 329 329 327 326 327 328 328 329 329 328 327 328 327 328 329 329 328
317 317 318 314 313 318 321 324 326 327 328 328 330 333 334 334 333 334 333 332 332 329 330 331 330 330 328 329 331 328 325 325 325 327 331 331 327 326 329 330 329 330 329 329 329 329 328 326 325 326 327 327 328 329 329 329 328 328 328 328 329 329
313 311 312 310 307 312 319 324 325 326 327 327 328 329 330 331 332 332 330 330 331 329 329 330 329 329 328 328 330 326 324 325 325 328 329 330 327 326 328 329 330 330 330 330 329 329 327 326 326 326 325 326 326 327 328 329 328 328 328 328 328 328
312 311 310 309 310 316 321 322 324 323 323 326 327 327 327 328 329 330 330 329 329 329 329 329 328 328 326 327 329 326 325 325 326 330 331 329 328 326 327 329 329 329 329 329 329 330 328 327 326 326 325 326 326 325 326 327 328 328 328 327 327 328
310 311 310 308 310 317 319 318 322 322 321 323 325 326 326 326 326 327 328 329 328 328 330 330 329 328 327 329 329 327 327 328 328 330 331 330 330 328 326 327 328 328 328 328 329 329 328 327 326 326 326 325 323 324 325 325 326 327 327 327 327 327
310 310 309 310 313 320 322 322 324 324 324 325 324 325 325 325 325 325 326 326 326 325 326 327 327 326 326 328 330 328 327 328 329 330 329 329 331 331 329 326 326 327 327 327 328 328 327 327 327 327 327 325 322 323 323 324 325 327 327 328 328 327
311 309 310 318 321 323 325 324 324 324 325 324 322 322 322 324 322 319 319 319 318 319 317 317 321 323 323 323 326 328 328 328 329 329 327 327 327 330 330 328 325 326 327 326 326 327 328 327 328 328 326 325 324 323 322 322 323 325 326 327 328 329
312 309 311 322 324 322 323 323 323 324 323 322 321 322 322 320 315 309 309 308 308 308 308 309 312 316 319 322 324 325 327 328 330 330 328 327 326 328 330 329 327 325 325 324 324 327 328 327 327 327 325 325 325 323 323 322 322 323 324 326 327 329
312 309 310 319 322 322 322 322 322 322 321 323 322 320 319 317 312 308 306 306 306 306 311 315 314 313 318 323 324 324 325 327 328 329 329 329 327 327 329 328 328 327 326 326 326 328 328 326 326 326 325 325 324 324 325 324 323 323 324 326 327 327
313 311 308 313 320 321 318 316 320 321 319 319 316 313 314 315 313 311 308 307 307 308 315 319 320 320 321 322 323 324 324 324 325 326 327 328 328 328 328 327 328 329 328 328 329 329 328 327 325 325 325 325 323 324 325 325 325 324 325 326 326 326
314 312 308 310 316 316 312 311 315 316 313 312 312 313 317 318 316 315 313 311 309 310 315 317 319 321 321 321 321 322 322 323 323 324 325 326 326 327 327 326 327 327 327 328 328 329 329 327 325 325 325 325 324 325 326 326 326 325 323 323 324 325
315 313 309 310 312 311 310 310 311 313 313 313 315 319 321 320 320 318 317 315 313 312 313 315 318 320 320 321 321 321 321 322 322 323 323 323 323 323 324 324 325 325 325 326 327 328 328 326 325 326 325 325 325 325 325 325 326 326 324 323 323 324
316 313 310 311 311 310 311 311 312 315 316 316 319 320 320 320 320 317 315 315 312 311 311 312 315 318 320 320 320 320 321 321 321 322 321 321 321 321 322 322 322 323 325 325 325 326 326 326 326 326 326 325 325 325 324 322 323 326 327 326 326 325
317 314 310 312 311 310 312 312 314 318 317 318 320 319 318 318 317 314 315 316 316 315 315 314 315 318 319 318 318 319 319 320 319 319 319 320 320 320 320 318 316 318 322 322 323 325 326 325 325 325 325 325 325 326 324 322 322 325 327 327 326 326
318 315 311 312 311 311 314 314 315 318 317 318 320 317 317 317 315 313 315 318 320 318 315 314 314 315 314 312 311 311 312 314 315 316 316 316 314 312 311 311 310 311 312 312 315 320 322 323 324 324 324 324 324 324 324 323 324 325 325 326 326 326
319 315 311 313 311 311 315 316 317 318 318 319 319 317 318 318 315 315 316 317 318 317 314 312 310 310 309 307 306 306 306 306 309 311 311 309 307 305 303 304 305 305 304 304 306 309 311 314 318 318 319 322 322 322 323 322 323 323 323 324 324 325
319 316 312 312 311 311 314 317 319 319 318 319 319 317 318 317 317 317 317 317 318 318 316 312 308 307 307 307 306 306 305 304 305 306 307 307 307 306 305 304 305 304 304 304 303 304 303 304 309 310 311 317 318 317 318 319 320 320 319 320 320 320
320 318 313 312 311 311 313 317 320 319 319 319 318 317 318 316 318 319 318 318 319 318 316 312 309 307 307 306 306 305 305 305 305 305 305 306 306 306 306 305 306 306 305 305 305 305 305 303 306 307 307 310 313 314 314 314 314 315 315 314 314 315
320 319 315 313 312 311 311 315 320 320 319 318 315 316 317 316 317 319 318 318 319 318 317 315 312 309 307 306 306 306 306 305 305 305 305 305 306 306 307 306 306 305 306 306 305 305 305 305 305 305 304 306 310 314 313 308 307 312 314 311 311 314
320 319 316 313 312 312 311 313 319 320 319 318 315 315 318 318 318 319 319 317 318 319 318 316 315 310 307 308 307 306 306 306 305 305 305 305 305 306 308 309 306 305 306 305 306 305 305 305 304 304 304 303 306 309 310 309 307 311 314 313 314 315
322 320 317 315 312 312 312 312 317 320 319 319 318 317 318 319 318 319 319 317 316 318 318 317 316 311 308 308 307 307 307 306 306 305 305 305 306 305 307 308 306 305 306 305 306 306 305 305 304 303 303 303 304 306 306 306 307 308 310 311 312 312
324 321 316 315 313 313 312 312 314 318 320 320 320 319 318 320 319 319 320 318 316 318 318 318 316 311 308 308 308 307 307 307 307 306 306 305 306 305 305 306 305 305 305 305 305 305 305 305 304 304 303 303 304 304 302 302 304 304 304 305 307 309
326 324 319 315 312 312 313 312 313 316 320 321 321 321 319 319 320 320 320 319 317 317 318 318 316 311 309 309 308 308 307 307 307 307 307 306 305 306 305 305 305 305 305 305 305 305 305 305 304 304 304 303 303 304 303 302 302 302 302 302 303 305

ECMWFFLT2_850_thetae_012.txt.gz
Theta_e
340 339 339 339 338 337 335 334 333 331 331 331 331 331 331 331 331 331 331 330 330 329 330 329 328 328 327 326 326 325 324 322 321 323 322 320 319 318 319 321 323 323 323 324 322 320 321 321 322 323 320 317 319 323 326 329 331 331 330 330 330 329
340 340 339 339 339 338 337 336 334 333 332 332 331 331 331 331 331 332 331 330 331 330 331 331 330 330 329 328 327 327 324 321 319 320 321 319 319 319 319 321 324 323 323 325 323 319 318 319 320 323 321 318 319 320 322 326 329 330 329 330 330 326
340 339 338 339 338 338 338 337 336 335 334 333 332 332 331 332 332 332 331 331 331 331 331 331 331 332 332 331 329 328 325 320 319 317 319 319 319 320 321 323 324 323 323 324 324 319 316 319 318 320 322 321 321 321 323 327 329 330 328 329 330 329
338 337 337 336 336 336 338 339 338 337 336 335 334 333 333 333 333 332 332 332 332 332 332 331 331 332 332 332 331 328 325 323 322 318 318 320 322 323 323 324 324 323 325 323 324 321 319 325 323 320 321 323 326 328 329 328 330 332 329 329 329 330
337 337 336 335 334 335 337 338 339 338 338 337 336 335 335 334 333 333 333 333 333 332 331 332 333 332 332 332 331 330 327 328 327 325 322 322 325 328 326 327 326 324 325 324 325 325 325 328 328 325 324 327 330 331 331 329 331 332 330 330 330 331
337 337 335 335 334 334 335 336 337 337 337 337 337 336 335 335 335 333 333 333 333 332 332 332 332 332 331 332 332 332 331 331 331 330 328 326 329 331 330 330 329 327 326 325 327 329 329 328 328 328 328 330 331 331 331 331 332 332 331 330 330 330
336 335 334 333 332 333 333 333 334 335 335 336 335 335 334 334 335 333 332 334 333 332 333 333 332 331 331 332 332 331 332 332 331 332 330 330 331 331 331 331 331 330 330 329 329 330 329 328 327 326 328 330 330 331 332 332 333 332 331 331 330 330
335 335 335 332 332 332 332 332 332 333 334 334 334 332 332 333 334 333 332 333 333 333 333 333 332 332 332 332 331 330 332 332 331 332 331 331 331 331 331 330 330 331 331 332 331 330 328 327 327 325 326 328 328 330 332 332 333 332 332 331 331 330
333 334 335 333 334 333 332 332 332 332 333 334 333 331 331 332 333 333 334 333 332 333 333 331 331 333 332 332 331 330 331 331 331 332 331 332 331 330 330 330 330 329 329 330 331 331 329 328 328 325 326 328 328 329 330 331 333 333 333 331 330 330
332 332 332 331 332 333 332 332 333 333 332 333 333 332 332 332 332 333 334 332 331 332 332 331 331 332 332 332 331 328 329 332 332 332 330 331 331 330 330 330 330 329 328 328 329 330 330 329 329 327 326 327 328 328 329 330 331 332 332 332 330 330
331 331 330 329 329 330 330 330 332 333 332 332 331 332 333 332 332 333 333 332 330 330 330 331 331 330 330 331 331 329 328 329 330 330 329 330 330 331 331 329 328 329 330 328 327 328 328 329 329 328 328 326 326 328 328 329 329 330 331 332 331 330
329 329 330 330 329 329 327 327 329 330 330 331 332 331 330 330 331 331 331 331 331 329 328 330 331 331 330 329 331 331 329 328 328 329 329 330 330 331 330 329 329 329 329 327 326 327 327 328 329 329 329 327 326 327 327 328 329 330 330 331 331 330
324 326 331 330 330 329 328 328 328 328 328 329 331 329 327 329 332 331 331 331 332 331 329 331 331 331 331 331 332 332 331 329 327 328 329 330 331 331 329 329 329 327 327 327 326 327 327 327 328 328 328 328 327 327 326 326 328 329 329 330 330 330
316 323 327 327 330 330 328 328 327 328 330 330 330 328 326 329 330 330 330 330 331 331 331 332 332 331 330 330 331 332 331 330 327 327 329 331 331 330 328 329 329 326 326 327 326 327 328 327 327 328 328 328 328 328 327 327 327 328 328 329 329 329
314 317 316 318 325 326 326 328 329 330 330 331 333 331 330 330 329 329 329 327 327 328 330 332 331 331 329 328 329 329 329 329 328 328 329 331 332 330 328 329 329 327 327 328 328 328 328 328 328 327 328 328 328 328 328 328 328 328 328 328 328 329
313 312 310 312 315 316 322 325 326 328 326 327 330 331 331 332 331 331 331 330 329 328 330 331 331 330 328 327 327 327 329 329 329 329 327 330 333 330 329 330 329 329 329 329 329 329 328 328 327 326 327 328 328 328 328 328 327 327 328 328 328 328
311 311 311 310 310 315 321 322 323 326 326 327 327 328 330 330 330 330 330 330 330 329 330 330 329 329 329 327 327 328 330 329 328 329 327 329 332 331 330 331 330 329 329 329 329 329 329 327 327 326 326 327 327 327 328 328 328 327 327 328 328 328
312 311 311 309 311 315 320 324 324 324 325 326 326 327 328 328 328 329 329 330 329 329 329 329 329 329 328 327 327 329 331 330 328 328 328 328 331 331 330 330 330 330 330 329 329 329 329 328 327 327 327 326 326 326 325 326 327 327 327 328 327 327
312 311 311 310 311 313 316 322 323 321 323 324 325 325 326 326 325 326 327 328 328 328 328 330 329 328 327 327 327 328 329 330 328 328 329 328 330 331 331 329 328 329 330 329 330 329 329 329 328 328 327 326 326 325 323 324 325 325 326 327 327 327
313 312 310 311 314 318 321 323 324 325 324 325 325 324 326 325 325 325 325 327 327 327 326 326 326 324 324 326 327 329 329 328 328 329 328 328 329 330 330 328 325 326 327 328 329 328 327 327 327 327 327 327 326 324 322 322 323 324 325 326 327 327
314 312 310 316 322 325 325 324 326 325 323 322 322 322 323 324 324 321 318 320 322 322 322 321 323 325 322 324 326 327 328 327 327 327 328 328 328 329 329 329 327 326 325 326 328 328 326 325 325 324 325 326 326 324 322 322 322 322 324 326 327 327
313 312 314 321 326 326 325 323 324 324 323 321 321 322 321 317 315 312 308 310 310 313 320 318 318 321 322 324 325 324 325 326 327 328 328 328 327 328 328 328 328 326 324 325 326 327 325 324 323 322 323 326 325 323 323 322 322 322 322 324 326 326
312 312 316 321 322 323 325 324 323 323 322 322 323 322 317 311 309 308 307 309 307 311 320 321 317 317 320 324 325 324 325 325 327 327 328 328 326 327 327 327 327 326 325 326 326 326 324 324 323 322 323 325 324 322 323 323 324 323 321 323 324 324
311 311 314 316 316 318 320 321 321 321 321 320 319 316 311 308 308 308 307 308 307 310 315 320 322 322 321 322 323 324 324 324 326 327 327 327 326 326 327 327 327 326 326 326 327 326 324 323 323 324 325 325 324 323 324 324 324 324 323 323 323 323
311 311 313 313 314 313 313 316 315 316 316 311 311 312 311 310 310 310 309 308 309 310 311 316 321 322 321 320 321 323 323 323 324 324 325 325 325 325 325 326 326 326 325 325 326 326 325 325 325 326 326 325 324 324 325 325 324 324 323 322 321 320
312 311 312 312 314 312 311 312 310 310 310 308 312 316 316 317 316 313 310 308 309 309 309 313 316 318 320 320 320 322 323 322 322 322 324 324 323 323 323 324 325 325 325 324 325 326 326 327 327 326 326 325 324 324 325 324 324 324 324 322 321 320
315 312 312 312 313 312 311 310 308 310 312 314 319 319 317 317 315 311 308 307 307 307 308 311 314 318 320 320 320 321 321 322 321 321 322 321 322 322 322 324 324 324 325 325 325 325 326 326 327 327 327 325 325 325 325 324 324 323 323 323 322 322
318 313 312 312 312 312 311 310 311 315 317 320 321 316 313 311 310 308 307 309 310 310 312 314 316 318 318 317 318 319 320 320 319 320 320 320 319 319 318 317 319 321 322 324 325 324 324 324 325 325 326 325 325 325 325 325 325 323 322 321 322 323
320 315 313 313 312 312 311 310 313 317 319 321 319 313 310 309 308 307 308 314 315 312 312 312 312 312 310 309 311 314 316 317 316 316 316 313 310 309 308 308 310 312 313 316 322 324 323 323 324 324 323 323 323 324 324 324 324 324 324 323 322 323
323 318 313 312 312 312 311 311 314 317 320 320 316 312 311 309 308 309 309 313 313 309 308 308 307 307 306 305 306 307 309 311 312 311 309 306 304 304 304 304 304 304 304 305 311 315 315 317 319 319 320 321 321 322 321 322 322 323 322 322 321 322
324 319 315 312 312 313 311 311 313 317 320 319 314 312 313 309 308 310 310 312 312 309 308 307 307 307 306 306 306 305 306 306 307 306 306 306 306 305 305 305 305 304 304 304 304 305 305 306 308 309 312 317 319 319 318 319 320 319 318 318 317 316
324 320 316 313 312 313 312 312 313 317 320 318 313 312 311 309 309 310 311 315 315 310 308 308 308 307 307 307 306 306 305 305 306 306 306 306 306 306 306 306 306 306 306 305 305 305 305 305 304 304 306 310 314 313 311 312 312 311 311 311 310 310
325 321 317 313 312 313 313 312 312 316 320 319 313 311 309 309 311 311 313 316 313 309 308 308 308 307 307 307 306 306 306 306 306 306 306 306 306 307 306 306 306 306 306 306 306 306 306 305 305 305 304 307 311 310 307 306 305 307 311 311 310 311
326 321 318 314 312 313 313 313 312 314 319 319 313 311 309 309 310 312 315 316 313 311 309 307 308 308 307 307 307 307 306 306 306 306 306 306 306 307 307 307 306 306 306 306 306 306 306 305 304 305 304 304 306 306 305 305 304 307 311 312 313 312
328 323 319 315 312 313 313 313 313 313 317 318 314 311 311 311 311 313 317 318 317 316 312 309 308 308 308 308 307 307 307 307 306 306 306 306 306 307 307 306 306 306 306 306 306 305 305 305 304 304 304 304 304 303 303 303 303 304 306 307 308 308
328 326 322 316 312 312 313 314 314 313 314 316 314 312 314 315 314 316 319 317 317 319 317 313 309 307 308 308 307 308 307 307 307 306 306 306 306 306 306 306 306 306 305 305 306 306 305 305 304 304 304 304 304 303 303 303 303 303 303 303 303 304
328 328 325 318 312 312 312 313 315 315 315 316 315 313 316 320 317 318 321 318 317 319 319 316 312 308 308 308 308 308 307 307 307 307 307 307 306 306 306 306 306 306 306 306 305 305 305 305 304 304 304 304 304 304 304 303 303 303 303 303 302 302

ECMWFFLT2_850_thetae_015.txt.gz
Theta_e
336 335 334 333 333 333 332 332 332 332 332 331 332 331 331 332 332 331 331 330 330 330 328 328 328 327 328 327 326 325 324 323 322 322 322 321 319 318 319 321 323 323 322 322 316 314 315 318 318 315 324 332 331 332 331 331 330 328 330 329 328 327
337 337 336 335 334 333 332 332 332 331 331 331 331 332 331 331 331 331 330 330 330 330 330 330 329 329 329 328 327 326 325 322 319 319 320 320 319 318 319 320 323 322 322 323 318 316 316 317 319 318 325 331 330 331 330 330 330 329 330 329 328 328
338 338 338 337 336 335 333 333 332 331 331 331 331 331 331 331 331 331 331 331 330 330 331 331 330 330 330 330 329 328 325 322 319 317 317 319 319 319 320 321 323 323 322 323 319 316 317 317 318 319 323 327 328 328 328 330 330 330 329 328 327 327
339 338 338 338 338 337 335 335 334 333 333 332 332 332 332 331 331 332 331 331 331 331 331 331 331 331 331 331 330 329 326 323 322 319 317 319 321 322 322 322 323 323 323 323 319 319 322 320 319 320 320 322 323 322 326 331 331 330 330 329 328 327
339 338 339 338 337 337 337 337 336 335 335 333 333 333 332 332 331 332 332 332 332 332 332 331 331 331 331 330 329 329 328 327 327 324 322 321 324 327 326 325 325 323 324 323 321 324 327 326 324 323 324 325 323 323 327 331 332 332 332 330 330 329
338 337 337 336 335 336 336 337 337 337 336 335 334 334 333 333 332 333 332 332 332 332 331 331 331 331 331 330 330 330 329 329 330 329 327 326 328 330 329 329 327 325 324 324 326 328 327 328 327 327 329 330 327 327 330 331 332 332 332 330 330 330
336 336 336 334 334 335 336 336 337 337 337 337 336 336 335 334 334 333 333 333 333 332 331 331 331 331 330 331 331 331 331 331 330 331 330 330 330 331 330 330 330 328 325 325 327 329 329 328 327 327 329 330 329 330 331 332 332 332 332 331 331 330
336 335 334 334 334 335 335 336 337 337 336 337 336 336 335 335 335 333 332 333 332 332 332 331 331 331 330 331 331 331 332 331 331 331 331 331 331 330 330 330 330 330 328 327 327 328 329 329 328 328 328 329 330 330 331 332 332 333 332 331 331 330
335 334 333 333 333 334 334 334 336 336 335 336 335 334 334 334 334 332 332 331 332 332 332 332 330 330 330 331 331 331 331 331 330 331 331 330 331 330 330 330 329 328 328 329 329 329 329 328 328 327 327 328 329 329 330 331 332 332 332 331 331 330
333 333 333 333 332 333 333 333 334 334 334 334 333 333 333 333 332 333 332 330 331 331 332 332 330 330 331 331 331 330 331 331 331 331 331 331 331 331 330 330 329 328 328 328 329 330 329 327 326 326 326 328 329 329 329 330 330 330 331 331 331 330
331 331 330 331 331 331 332 331 332 332 332 332 333 333 332 331 332 332 332 330 330 330 331 331 330 330 331 330 331 330 330 331 331 331 331 331 331 330 330 330 329 329 329 328 328 329 328 327 327 325 324 326 328 328 329 329 330 329 330 330 331 330
329 329 329 329 330 330 329 330 332 332 332 331 331 333 332 332 332 331 332 331 330 330 329 330 330 330 330 330 331 330 329 330 331 331 330 330 331 330 330 330 329 329 328 329 329 328 327 327 328 327 325 327 327 326 327 328 329 329 329 330 330 330
328 328 329 329 328 327 327 328 329 330 331 331 331 332 333 333 332 331 332 332 332 331 330 330 331 331 329 330 330 330 329 328 329 329 329 330 331 330 330 330 328 328 327 328 329 328 328 328 329 328 327 328 327 326 326 327 328 329 329 329 330 330
330 329 330 330 328 327 328 328 328 328 329 330 330 331 331 332 332 332 332 332 332 332 330 330 330 331 330 330 331 331 330 328 328 327 328 330 331 330 330 330 328 327 327 326 328 328 329 328 329 328 328 328 328 327 326 326 327 328 328 329 329 329
330 330 330 329 327 327 328 328 328 329 330 329 329 330 330 330 330 331 331 331 331 331 331 330 330 330 330 331 329 329 330 329 329 327 327 330 331 330 330 329 329 327 327 326 326 328 328 328 328 328 328 328 328 328 327 326 326 328 329 330 330 329
327 330 328 327 327 327 327 327 328 330 328 327 328 329 328 329 329 329 329 330 330 330 330 329 329 329 329 330 329 328 329 328 328 327 328 328 328 329 328 328 328 328 327 326 325 326 327 327 327 327 327 327 328 328 327 327 327 328 328 329 330 329
319 321 318 319 324 327 328 328 328 327 323 323 325 326 327 328 328 328 329 330 329 329 328 328 328 328 328 329 329 328 326 326 324 324 327 326 324 327 329 328 328 328 328 327 326 327 326 326 327 327 327 327 327 327 327 327 328 328 328 328 329 329
312 312 311 313 318 325 327 325 323 323 322 322 324 325 325 326 328 328 328 328 328 328 327 327 327 327 326 328 329 328 326 326 325 324 325 324 323 327 329 328 328 329 329 328 328 328 327 326 327 327 326 326 327 327 327 327 327 327 327 328 328 328
310 310 311 311 313 317 320 320 322 323 325 326 325 325 322 321 325 327 327 327 327 327 327 328 328 327 326 326 328 328 327 327 327 327 326 324 324 327 328 328 329 329 329 329 328 329 328 327 327 326 325 326 326 326 325 326 326 327 326 327 328 328
311 311 312 312 312 315 317 320 323 324 325 326 326 325 323 319 320 320 322 323 324 325 327 328 329 328 328 328 328 328 328 328 328 328 327 326 326 328 329 329 329 329 329 329 328 329 328 328 328 327 326 326 326 326 325 323 323 324 325 326 326 327
312 311 312 313 314 316 319 321 324 325 324 325 325 325 324 323 320 317 314 314 317 320 323 327 327 325 325 326 327 327 327 328 328 328 328 327 327 328 329 329 329 329 329 329 329 329 328 328 327 327 326 325 325 326 325 323 322 321 322 323 324 326
312 311 313 316 317 319 320 321 322 323 322 322 323 324 325 325 323 320 317 314 316 318 317 318 319 319 321 323 325 326 325 326 327 327 328 328 327 328 329 329 329 328 328 328 329 329 329 327 326 326 324 324 324 325 324 323 322 321 322 322 323 325
311 312 315 320 322 321 322 322 320 320 319 318 321 321 321 323 320 317 317 314 313 316 315 314 315 318 323 323 324 325 324 325 327 327 328 328 327 327 328 328 328 328 327 326 326 327 328 327 326 325 323 323 324 324 323 322 323 322 322 322 321 323
311 313 319 323 324 322 323 324 322 321 318 318 320 316 311 313 311 308 310 311 314 319 319 318 318 321 323 323 324 324 322 323 326 327 326 326 326 326 326 326 326 327 326 325 324 325 326 326 325 324 323 324 324 323 322 322 323 324 323 322 322 323
311 315 322 324 323 322 323 323 322 322 321 321 318 310 306 309 308 307 309 312 316 321 322 322 322 321 322 322 323 323 322 323 325 325 325 325 324 325 325 325 326 326 325 325 325 325 325 325 324 323 323 324 325 323 323 323 323 324 324 323 322 321
311 316 322 321 320 320 319 319 319 319 318 317 313 308 308 309 309 309 310 310 313 317 321 322 322 320 320 322 323 322 322 324 324 324 324 323 323 323 324 324 325 326 325 324 325 326 325 324 324 324 324 324 324 323 324 324 323 323 323 324 323 322
311 315 318 317 316 316 316 315 314 312 310 310 309 308 309 308 308 308 308 308 309 311 315 317 318 319 319 321 322 322 322 322 323 323 322 323 322 322 323 324 324 324 324 324 324 325 325 325 325 326 326 326 325 324 324 324 324 324 324 324 324 323
314 315 315 314 314 313 312 311 310 309 308 307 308 308 309 308 308 308 307 307 308 308 310 311 313 316 319 321 321 321 320 320 321 322 322 322 322 323 322 322 322 322 323 323 324 324 324 324 325 325 325 325 325 324 324 324 324 324 324 323 323 323
318 318 314 312 313 311 310 309 308 309 309 308 309 308 308 308 307 308 307 307 307 307 308 307 308 310 313 318 321 320 319 319 319 319 320 321 321 320 318 316 318 319 319 319 322 323 323 323 324 324 324 324 324 324 324 324 324 323 324 323 322 322
321 321 317 312 312 312 309 310 310 310 310 309 309 308 308 308 307 307 307 307 307 307 307 306 306 306 306 312 318 319 317 317 314 311 311 313 312 310 307 307 310 314 315 318 320 322 322 322 322 321 322 323 322 323 323 322 323 323 322 321 321 322
321 323 320 313 311 311 310 311 313 312 310 308 309 309 308 308 308 307 306 307 307 307 307 307 306 306 305 307 312 314 313 310 307 305 305 305 305 304 303 303 305 307 310 314 316 316 315 317 317 316 318 320 321 321 321 321 322 322 321 320 320 318
322 323 322 315 312 311 310 313 316 313 311 308 309 309 309 309 308 307 307 307 307 306 307 307 306 306 306 305 306 307 308 306 305 306 306 306 306 306 305 305 305 304 306 307 309 308 307 309 309 309 311 314 317 319 319 319 319 318 317 316 312 309
322 323 322 316 312 311 311 314 317 315 312 309 309 309 309 309 309 308 307 307 307 307 306 307 307 306 306 306 306 305 305 306 306 306 306 306 306 306 306 306 306 306 306 306 306 306 306 305 306 305 306 307 310 312 312 310 310 309 309 308 306 305
323 323 324 317 311 311 311 315 317 316 314 310 308 309 309 309 309 308 308 308 307 307 307 307 307 307 307 306 306 306 306 306 306 306 306 306 306 306 306 306 306 306 306 306 306 306 306 306 306 305 305 305 306 306 305 305 304 304 305 305 306 305
324 324 325 320 313 310 311 315 318 318 316 311 309 309 309 309 309 308 308 308 308 308 308 307 307 307 307 307 307 307 306 306 306 306 306 306 307 306 306 306 306 306 306 306 306 306 306 305 305 305 305 304 304 304 304 304 303 303 304 303 303 303
325 326 326 321 316 313 311 314 318 319 318 314 310 310 309 309 310 309 308 309 309 309 308 308 307 307 307 307 307 307 307 307 306 306 306 306 306 306 306 306 306 306 305 305 305 305 305 305 305 304 304 304 304 304 303 303 303 303 303 303 303 302
326 327 325 323 320 315 312 313 318 320 320 317 312 312 311 310 310 311 310 310 309 310 310 309 308 308 308 307 307 307 307 307 307 307 307 306 306 306 306 306 306 306 305 305 305 305 305 304 304 304 304 304 304 304 304 303 303 303 303 303 302 302

ECMWFFLT2_850_thetae_021.txt.gz
Theta_e
329 328 329 328 327 327 328 328 328 330 330 329 328 328 328 328 328 328 328 328 328 327 326 326 326 326 326 325 325 325 324 323 322 322 321 320 318 317 319 322 321 318 315 317 317 315 316 322 331 332 331 331 330 331 331 331 330 329 328 328 327 326
329 329 329 328 328 327 329 330 329 330 331 330 328 329 329 329 329 329 330 329 329 328 327 326 326 326 326 325 325 324 324 323 322 322 322 321 318 317 318 319 321 319 315 316 317 316 316 323 330 332 331 331 331 330 331 330 329 329 328 328 327 326
330 330 329 329 328 328 328 329 329 330 330 330 329 330 330 330 330 330 330 330 330 329 328 328 327 327 327 326 325 324 324 323 321 320 321 320 318 318 319 320 321 320 316 315 318 316 317 325 331 331 331 331 330 330 330 329 328 328 328 328 328 327
331 330 330 330 330 330 330 329 329 329 330 330 330 330 330 331 330 330 330 330 330 329 330 329 329 329 328 327 326 325 324 322 320 318 318 319 319 319 320 321 321 321 317 314 318 317 317 326 331 331 331 331 330 330 329 329 328 328 328 328 328 329
332 331 331 332 332 331 331 330 330 330 330 330 330 331 331 330 330 330 330 330 330 330 330 330 329 330 330 328 327 327 325 322 320 318 316 318 321 322 322 322 322 322 317 314 318 319 317 324 331 330 331 331 330 329 329 329 329 329 329 329 329 329
332 332 332 332 332 332 331 331 331 331 331 330 330 331 330 330 330 330 330 330 330 330 330 330 330 330 330 330 328 328 326 324 323 320 318 322 325 325 324 322 323 322 317 315 318 320 318 322 330 329 328 329 329 329 329 329 329 330 330 330 330 329
333 332 333 332 332 332 332 332 332 331 331 331 330 331 330 331 330 330 330 331 330 330 330 331 331 330 330 331 330 328 327 327 328 325 323 327 329 327 326 323 323 322 318 317 317 319 320 322 329 329 326 327 328 327 328 329 329 328 329 330 329 329
334 334 334 334 334 334 333 333 332 332 332 332 331 331 331 331 331 331 331 331 331 331 331 331 331 330 330 331 330 329 329 329 330 329 327 329 329 328 328 325 323 322 319 320 318 319 320 323 328 328 325 327 328 326 326 328 328 327 329 329 330 329
336 336 336 336 336 336 336 335 334 334 334 333 332 332 332 332 332 331 331 331 332 332 331 331 331 331 331 330 330 330 329 330 330 329 329 330 330 329 329 327 324 322 320 322 322 320 319 321 325 325 324 328 329 328 328 328 328 328 329 330 330 330
338 338 337 338 337 337 337 336 335 335 335 334 333 334 334 334 334 333 333 333 333 333 333 332 332 331 331 331 331 330 330 330 329 329 329 330 330 330 329 329 327 323 321 322 323 323 321 321 322 323 325 328 329 328 329 330 329 330 330 330 331 331
338 338 337 337 336 336 335 334 335 335 336 335 335 335 335 334 334 334 334 334 334 333 333 333 332 332 331 331 331 331 331 330 329 329 330 330 330 330 328 328 328 327 324 322 323 325 324 324 325 325 326 327 327 328 328 329 330 329 329 330 330 330
337 336 335 335 335 334 334 333 333 334 335 335 335 335 334 333 332 332 333 334 333 332 333 332 331 331 331 331 330 331 330 329 329 329 330 330 330 329 328 327 328 328 328 326 327 328 326 326 327 326 327 327 327 328 328 328 328 329 329 330 330 330
336 334 333 332 333 333 332 331 331 332 333 333 333 333 332 331 331 331 332 333 331 330 332 331 330 331 331 331 331 331 329 328 329 329 330 330 329 329 328 328 328 328 328 329 329 330 328 326 327 327 327 327 326 327 328 327 327 328 329 329 330 330
334 332 331 329 330 329 329 328 329 331 332 332 332 331 331 331 331 331 331 331 330 330 330 330 331 331 331 331 331 330 329 327 329 330 330 330 330 330 328 328 329 328 328 329 329 329 329 327 327 328 328 328 326 326 327 327 326 327 328 329 329 330
330 329 328 327 327 327 326 327 328 330 329 330 331 330 331 330 330 330 330 331 331 330 330 331 331 331 331 330 330 330 329 328 329 330 330 330 330 330 329 329 328 328 328 327 328 328 328 328 328 329 329 328 327 327 327 326 326 326 326 326 327 328
327 326 325 325 326 326 324 325 326 327 327 328 329 328 329 329 329 329 330 331 332 331 331 331 330 330 330 330 330 330 329 329 329 330 330 329 329 329 329 329 328 327 327 327 327 327 327 328 328 329 329 328 328 327 327 327 327 326 326 326 326 327
325 323 323 323 324 324 323 323 325 326 327 328 327 327 327 328 328 329 330 331 332 331 331 330 329 329 330 330 330 330 329 329 329 329 329 328 329 329 329 329 328 327 327 327 327 326 327 327 328 328 328 328 328 327 328 328 328 327 327 327 326 327
325 324 324 324 324 323 322 323 325 326 328 328 327 327 327 327 328 329 330 331 331 330 329 330 329 328 329 330 330 330 330 330 330 329 329 329 328 328 329 329 330 329 327 327 327 326 326 327 328 328 328 328 328 327 327 328 327 327 328 327 327 327
326 326 325 326 325 321 320 321 323 325 327 326 325 325 326 326 328 328 329 330 330 330 329 329 329 328 329 329 330 330 330 330 330 329 329 328 327 327 329 329 329 329 327 327 327 327 327 327 327 328 328 327 327 327 327 327 327 327 327 327 327 328
325 325 325 324 322 317 316 318 320 322 325 324 323 324 324 324 326 327 328 329 330 329 329 329 329 329 329 330 329 329 329 329 330 329 328 327 327 327 327 328 329 329 328 327 327 328 328 328 328 328 328 327 327 327 327 326 326 326 326 326 327 327
324 325 322 318 316 314 314 316 316 319 322 323 322 323 323 322 323 326 328 328 329 329 329 329 329 329 329 329 328 327 327 328 329 329 328 328 328 327 326 327 328 329 329 328 328 328 328 328 328 327 327 327 326 326 326 326 325 325 325 325 325 326
324 323 319 315 314 313 315 316 317 318 319 320 322 323 322 320 321 324 326 327 327 328 329 329 329 328 328 328 328 327 327 327 328 328 327 328 328 327 327 327 328 329 329 329 329 328 328 328 327 327 327 327 326 326 325 325 324 324 324 323 322 322
321 319 317 315 313 314 316 319 318 318 318 320 321 322 322 321 320 321 323 326 327 327 327 327 327 327 326 326 327 326 326 325 326 326 327 327 327 327 327 328 329 329 329 329 329 329 328 328 327 327 327 327 326 325 325 323 323 323 323 323 322 321
316 315 315 314 313 315 318 318 317 319 320 320 320 321 321 321 320 318 317 320 324 326 326 326 326 326 325 324 324 324 324 323 324 325 326 326 327 327 327 328 328 328 328 328 328 329 329 328 329 328 327 326 326 325 324 323 323 322 323 322 322 322
313 313 314 313 312 314 317 316 317 319 320 319 320 318 318 319 318 318 315 313 313 317 320 321 322 321 320 318 319 320 320 318 320 324 326 325 326 325 326 327 327 327 328 328 328 328 328 328 328 328 327 326 325 324 324 323 322 323 323 323 323 322
313 313 312 312 312 314 316 316 315 316 316 316 316 316 317 319 318 318 316 311 308 308 311 314 314 313 311 311 312 314 314 314 317 323 324 324 324 325 325 325 326 326 327 327 327 327 327 326 326 326 327 327 325 324 323 323 322 323 324 323 322 321
312 312 312 312 314 316 316 317 316 314 315 314 314 315 316 317 318 317 314 310 308 308 310 312 312 313 313 313 313 313 316 319 321 323 324 323 323 323 323 324 324 324 325 326 326 325 325 325 325 325 326 326 325 324 323 323 323 323 323 322 322 322
312 311 312 313 315 317 317 317 317 317 315 313 314 315 311 310 313 313 311 309 309 311 313 314 314 315 316 317 316 314 318 323 324 323 324 323 322 322 322 323 323 323 323 324 324 323 323 324 325 325 325 324 324 324 323 323 323 323 322 322 322 322
311 311 312 314 317 319 320 320 320 318 315 313 315 315 309 306 308 308 308 309 310 312 314 316 316 316 316 317 317 315 317 321 322 322 322 322 321 322 321 321 322 321 321 321 322 322 323 324 324 324 324 324 324 324 324 324 324 323 323 322 323 322
312 313 316 319 321 322 322 322 322 321 317 314 315 313 308 307 307 307 307 307 308 310 313 315 315 315 316 318 317 315 315 317 319 319 319 319 320 320 319 319 317 316 317 317 318 320 322 322 322 323 323 324 324 324 324 324 323 322 322 322 322 321
313 314 316 320 322 323 324 323 323 322 320 316 313 310 307 307 307 307 307 306 306 307 309 312 312 313 316 318 317 316 315 315 314 313 314 316 315 312 310 310 309 310 312 314 316 319 320 320 320 320 321 322 323 323 323 322 322 322 322 321 321 320
314 313 313 315 317 321 323 324 323 323 321 317 311 308 308 308 308 307 306 306 306 306 306 307 309 312 316 318 317 315 312 310 308 307 309 309 307 305 304 303 304 307 310 312 314 316 314 315 314 312 314 319 321 321 320 319 318 317 315 313 313 313
316 314 314 313 313 318 323 324 323 322 321 317 311 308 308 308 307 307 306 305 305 306 305 306 307 309 313 316 314 311 307 305 305 305 306 306 305 305 305 304 304 306 307 308 309 308 306 307 307 306 309 312 314 314 313 311 309 308 306 305 306 306
321 318 316 314 314 320 323 323 322 322 321 316 310 308 308 308 308 306 306 305 305 305 306 305 306 307 310 311 309 306 305 306 306 306 306 306 306 306 306 306 306 305 306 306 305 305 305 305 305 306 306 307 307 307 306 305 304 304 303 303 304 303
327 325 321 318 319 322 321 321 321 318 315 313 309 308 308 307 307 306 306 306 305 306 306 305 306 306 307 307 306 306 306 306 306 306 306 306 306 306 306 306 306 305 305 305 305 305 305 305 305 305 305 304 304 304 304 303 303 303 303 303 303 303
331 329 325 322 323 322 320 320 319 314 312 312 310 309 308 307 307 306 306 306 305 306 306 305 306 305 305 306 306 306 306 306 306 306 306 306 306 306 305 305 305 305 305 305 305 305 304 304 304 304 304 303 303 303 303 303 303 303 303 304 304 303
332 329 324 323 322 319 316 316 315 313 313 313 311 311 309 307 307 307 306 306 306 306 306 306 306 306 306 305 306 306 306 306 306 306 306 306 305 305 305 305 305 305 304 304 304 304 304 304 303 304 304 303 303 304 304 304 304 305 305 305 305 306

ECMWFFLT2_850_thetae_024.txt.gz
Theta_e
328 327 328 329 327 328 328 327 326 325 326 326 326 326 326 326 327 326 327 327 327 327 327 328 328 327 326 326 326 325 324 323 322 321 320 320 318 318 321 322 318 315 316 317 316 319 325 328 329 331 331 331 331 330 330 329 328 326 326 325 324 323
329 328 328 328 326 328 329 329 328 327 329 329 328 327 326 327 327 327 328 327 327 326 327 327 327 327 326 325 325 324 324 323 322 321 321 321 319 317 318 321 320 317 316 318 317 317 322 326 328 331 331 331 331 330 330 329 328 327 327 326 325 325
331 330 329 328 326 328 330 330 330 331 331 331 329 328 327 327 327 327 328 328 327 326 327 327 327 327 326 325 325 324 324 323 322 321 321 321 318 318 318 320 321 318 315 318 318 317 319 323 328 331 331 331 330 330 330 329 328 327 327 327 327 326
331 330 329 328 326 329 331 330 331 333 332 330 329 328 328 328 328 328 328 328 328 327 327 327 328 329 329 327 326 325 324 323 321 319 320 320 318 318 320 320 321 319 316 318 319 318 318 322 328 331 331 331 330 330 329 328 327 327 327 328 327 327
329 329 328 328 327 328 331 330 330 332 331 329 329 329 329 329 329 329 329 329 329 329 328 328 329 330 330 328 326 326 325 323 321 318 317 318 319 319 320 321 322 321 318 317 320 320 319 323 328 330 331 330 330 330 329 328 328 327 328 328 328 327
329 328 329 328 327 328 331 329 328 330 330 329 329 329 329 329 329 329 329 329 329 329 329 330 330 329 330 329 328 327 326 324 322 319 317 318 321 323 322 321 322 322 319 317 319 320 320 324 329 330 330 330 330 329 328 328 328 328 328 328 328 328
330 329 329 329 328 329 330 328 328 329 329 330 330 330 330 329 329 329 329 329 329 330 329 330 330 330 330 330 329 328 327 326 326 323 320 321 326 326 325 324 323 322 320 317 319 321 321 324 329 329 330 330 330 329 329 329 329 328 328 328 329 329
330 330 330 329 329 329 330 329 329 329 330 330 330 330 330 330 329 329 329 329 330 330 330 330 331 331 330 330 330 330 328 327 328 327 324 326 329 328 327 326 323 322 320 318 320 321 322 323 328 329 328 328 328 327 327 328 328 327 328 329 330 330
330 331 330 330 330 330 330 330 330 330 330 330 331 331 330 330 330 330 329 330 330 331 331 330 331 331 331 330 330 330 329 329 329 329 327 328 330 329 329 327 324 322 320 321 323 323 322 323 326 327 326 327 327 326 325 326 327 326 329 331 331 330
330 330 330 330 330 330 330 330 331 331 331 332 332 332 331 331 330 331 331 331 331 331 332 331 331 331 331 330 330 330 329 330 330 330 329 329 330 329 330 328 325 322 321 324 325 323 323 324 325 326 326 327 327 327 327 327 328 328 330 330 331 330
330 330 330 331 331 332 333 333 334 334 333 334 333 333 332 331 332 332 333 332 331 331 332 332 331 331 331 331 331 330 330 330 330 330 329 329 330 330 329 329 327 323 321 325 326 324 324 324 325 326 326 327 328 328 328 329 329 329 329 329 330 329
331 331 332 333 334 334 336 336 336 336 335 335 334 334 333 332 332 333 333 332 332 331 332 332 331 331 331 331 330 330 330 330 330 330 330 330 330 329 329 328 328 325 322 323 325 325 325 324 325 326 326 327 327 327 327 328 329 328 329 329 330 329
332 334 336 337 337 337 337 336 335 335 334 335 335 335 335 334 333 332 333 332 332 331 331 331 330 329 327 329 330 330 330 330 330 330 329 330 330 329 328 327 328 328 325 323 324 325 326 325 325 325 326 326 325 326 327 327 327 327 329 329 330 330
335 337 337 336 336 335 335 334 333 333 333 334 334 334 334 334 332 331 332 332 331 330 331 330 330 328 325 327 329 330 329 330 330 329 329 330 330 329 329 327 327 328 327 327 326 327 327 326 325 326 325 326 326 326 327 327 326 327 328 328 329 329
338 337 336 334 333 333 332 331 331 331 332 332 332 332 332 332 331 330 331 332 330 330 330 330 329 327 325 326 329 329 328 328 329 329 329 329 329 329 329 328 327 327 328 328 329 329 329 327 326 326 326 327 327 326 326 327 326 326 326 326 326 327
337 335 333 332 331 330 329 328 329 330 331 331 331 331 330 331 331 330 330 331 330 330 330 329 328 326 324 325 328 329 328 328 329 329 329 329 329 328 328 328 328 328 327 328 329 328 328 327 327 327 327 327 327 326 326 326 326 326 325 325 325 325
336 332 330 330 329 327 326 325 327 328 329 329 328 328 328 328 329 329 329 330 330 330 329 329 328 327 325 326 328 329 329 328 329 328 328 329 328 328 328 328 328 328 327 327 328 328 327 328 327 327 328 328 328 327 327 327 327 326 325 325 326 325
334 331 329 328 328 326 325 324 325 326 327 326 326 326 326 327 328 328 328 328 329 330 330 329 329 328 328 326 327 328 328 329 329 328 328 328 329 328 327 328 329 328 327 326 327 327 327 327 326 327 327 328 328 328 327 327 327 327 327 326 326 326
331 329 327 328 327 326 323 322 323 325 325 326 326 325 324 325 326 327 327 328 329 330 330 329 329 329 328 327 327 327 328 328 329 329 329 328 329 328 327 327 328 329 328 327 327 326 326 326 327 327 328 328 328 327 327 327 327 327 327 327 327 327
329 328 328 327 326 323 319 318 321 323 325 325 324 324 323 323 324 325 326 327 327 328 329 329 328 328 328 328 328 327 328 328 328 329 329 329 329 328 326 325 327 328 328 328 327 326 326 326 327 328 327 328 327 327 327 326 326 326 326 326 326 326
328 327 327 326 321 317 315 316 319 321 323 324 323 323 323 322 322 322 325 326 327 328 328 329 328 328 328 328 329 328 328 328 328 328 328 328 328 327 325 324 325 326 327 328 328 327 327 327 327 328 327 326 327 326 326 326 326 325 325 325 325 325
328 326 325 324 318 314 315 316 319 320 321 321 321 321 321 320 318 318 321 325 327 328 328 328 328 328 328 328 328 328 328 327 327 327 327 327 327 327 325 325 325 325 326 328 328 327 328 328 328 327 326 326 326 326 326 325 325 324 324 324 324 323
328 326 323 319 315 315 315 314 318 319 319 320 320 320 319 318 316 315 316 318 322 326 327 327 327 327 327 327 327 327 326 326 326 326 326 326 326 326 326 326 326 326 325 327 327 326 327 328 327 326 325 326 326 326 325 325 324 323 323 323 322 322
328 325 319 316 314 314 314 314 317 318 318 318 318 319 317 316 314 314 314 312 314 321 326 327 326 326 326 325 325 325 325 325 325 325 325 325 326 326 326 326 326 326 326 327 328 326 326 326 326 326 326 326 325 324 324 324 323 323 322 322 322 322
328 323 316 314 314 314 314 314 315 316 315 315 315 315 315 313 312 312 313 311 309 314 320 324 325 325 324 323 323 322 322 322 322 322 324 324 325 325 326 326 327 327 327 328 327 327 327 325 325 327 327 326 326 324 323 323 322 323 323 323 322 322
327 321 315 314 314 314 314 314 315 314 313 313 314 314 312 311 311 310 309 308 307 307 309 314 318 320 320 319 317 316 315 315 316 319 322 324 324 324 324 325 326 327 327 327 326 326 327 326 326 327 327 327 326 325 324 323 322 323 324 322 321 321
325 318 314 314 314 313 314 315 315 314 314 315 315 314 311 308 308 308 307 307 306 306 306 308 312 314 315 315 314 314 315 316 318 321 323 323 323 323 323 323 324 325 326 326 326 326 326 326 326 326 326 326 326 325 325 323 322 323 323 323 323 322
323 316 313 314 314 313 314 315 315 314 315 316 317 315 311 307 307 307 307 307 306 306 307 308 311 314 316 317 314 316 319 320 322 323 323 322 322 322 322 323 323 323 324 324 324 325 325 324 324 325 325 325 325 325 324 323 322 322 322 323 323 323
321 314 313 313 313 313 315 316 316 316 316 317 317 315 311 308 307 307 307 307 307 308 308 308 311 314 318 318 316 318 321 322 322 322 322 321 321 321 321 321 321 320 320 321 322 323 323 323 323 324 325 324 324 324 324 324 323 323 322 322 323 322
321 314 312 313 312 313 314 316 317 317 318 319 318 316 311 308 307 307 307 307 307 308 308 309 311 313 316 318 317 317 319 320 321 321 320 321 320 320 318 317 315 315 316 317 319 321 322 322 323 323 324 324 324 325 324 324 323 323 322 322 322 320
319 313 312 312 312 313 314 317 316 316 318 321 320 318 313 308 307 307 307 306 306 306 307 308 310 311 315 318 317 316 316 316 316 316 316 317 316 313 311 309 308 311 314 315 318 320 319 318 318 320 322 323 324 323 323 322 323 322 322 321 321 319
318 313 313 311 311 312 314 317 316 317 320 322 321 320 316 309 307 307 306 306 306 305 306 306 307 310 314 317 317 316 313 310 309 309 309 309 306 304 303 303 306 310 313 315 316 315 314 311 309 310 315 318 321 321 320 320 319 317 315 314 314 315
317 314 313 313 312 312 314 316 318 319 322 322 322 320 316 310 307 307 306 306 306 305 306 305 306 309 313 317 317 314 308 305 305 306 306 305 304 304 304 304 305 307 308 309 309 308 306 306 304 305 307 310 312 313 312 311 309 307 306 305 306 307
317 314 313 311 311 312 313 316 319 322 322 323 321 316 313 310 308 307 306 305 305 305 305 305 306 308 312 314 313 309 305 305 305 306 305 306 306 305 305 305 305 305 305 306 305 305 305 305 305 305 305 305 306 306 305 305 304 303 303 303 303 303
319 316 315 315 317 318 319 319 319 320 322 321 316 310 312 314 310 307 306 306 305 306 305 305 305 307 309 310 308 306 305 306 306 305 306 306 306 306 306 306 306 305 305 305 305 305 305 305 305 305 304 304 304 303 303 303 303 303 303 303 303 303
322 319 319 319 320 319 318 316 315 317 319 318 312 310 315 316 310 306 306 306 305 306 305 305 305 306 307 306 305 305 306 306 306 306 306 305 305 305 305 305 305 305 305 304 304 304 304 304 304 303 303 303 303 303 304 305 306 306 307 306 306 305
324 322 322 321 321 318 315 314 315 316 317 316 312 313 314 311 308 307 306 306 306 306 305 305 305 305 306 305 305 305 305 306 306 306 305 305 305 305 304 304 304 304 304 304 304 304 304 304 304 303 304 304 304 305 306 308 309 309 309 309 309 308

ECMWFFLT2_850_thetae_030.txt.gz
Theta_e
336 336 336 335 337 338 336 336 336 335 333 331 332 332 331 328 326 326 325 327 329 330 331 330 329 328 327 326 325 324 323 323 322 321 321 320 320 321 320 318 316 316 317 319 320 322 325 328 329 327 328 329 329 329 329 330 330 333 333 330 331 329
337 336 336 335 337 338 336 335 335 334 332 330 331 332 330 328 327 327 326 328 328 330 333 332 330 329 328 328 326 324 323 322 321 321 320 320 320 321 320 320 318 317 317 317 319 324 326 327 328 327 328 329 329 331 331 327 327 332 333 332 332 327
338 336 337 337 337 336 335 335 334 334 332 330 332 332 331 330 329 328 328 329 328 330 334 332 329 328 327 328 326 323 323 322 322 323 321 320 320 320 321 321 321 319 317 318 323 327 327 327 328 328 328 329 330 333 331 327 328 331 332 332 331 327
338 337 338 338 337 335 334 336 336 334 332 330 332 332 331 331 331 329 329 329 328 330 331 330 329 328 327 328 327 324 323 322 323 322 322 323 323 322 323 323 324 322 321 324 327 327 327 328 328 329 329 330 332 332 330 329 330 332 332 331 329 326
339 338 336 335 335 334 333 336 336 334 332 330 331 331 330 331 331 331 331 329 328 328 327 328 328 328 329 331 330 328 327 327 328 324 323 328 328 326 327 328 328 327 327 327 326 325 326 328 329 330 330 331 332 331 330 331 332 332 332 330 328 326
338 338 335 333 333 333 333 333 334 332 330 330 330 330 330 331 332 331 331 330 329 328 328 330 330 331 334 333 332 332 331 330 330 326 324 328 328 326 328 330 330 329 328 326 323 322 321 324 328 329 330 330 331 331 332 332 331 332 331 329 328 326
338 337 335 331 330 331 331 331 331 330 329 330 331 330 329 330 332 330 330 330 330 329 330 331 331 333 334 332 332 333 333 330 330 328 324 326 326 324 328 328 328 328 327 327 325 324 322 322 324 328 330 330 331 331 332 333 332 332 331 329 327 327
337 335 333 330 328 329 329 329 330 331 331 332 332 330 329 330 330 329 330 330 329 328 328 329 332 333 332 332 333 333 333 331 331 329 324 325 326 326 329 330 329 328 327 327 327 327 327 324 323 327 330 330 331 332 332 332 332 332 331 329 328 328
334 332 332 330 328 328 329 330 331 332 332 333 332 330 329 329 329 329 330 329 328 327 327 330 332 333 333 333 333 333 333 332 332 331 327 326 328 330 330 331 330 329 328 328 328 327 328 326 325 327 330 330 330 332 333 332 331 330 330 329 329 328
331 331 332 330 329 329 329 329 330 330 330 330 330 330 328 328 329 329 330 329 329 330 329 330 331 332 334 333 333 332 332 332 332 331 330 329 331 332 331 331 330 329 329 328 328 327 327 327 327 328 329 329 329 330 332 331 330 330 330 330 330 328
331 331 330 329 329 328 328 329 329 329 328 328 329 329 328 328 329 329 329 329 329 330 330 329 330 331 332 331 331 332 331 332 331 330 331 331 332 331 331 332 330 330 329 328 328 327 327 327 327 328 328 328 329 330 331 331 331 331 332 332 332 329
331 330 329 329 329 329 329 329 329 327 327 328 329 330 329 329 329 328 329 329 329 329 330 330 330 331 331 331 330 331 331 331 330 330 330 332 333 331 332 332 330 329 328 329 329 328 328 328 327 328 327 328 328 329 329 330 331 332 332 332 333 331
331 330 330 329 329 330 329 329 329 327 326 328 329 330 329 330 329 328 328 329 329 329 329 329 330 331 331 331 332 331 330 330 329 330 329 330 332 331 331 331 330 329 328 329 330 328 328 328 327 328 327 327 328 328 328 329 331 332 332 332 332 332
332 331 330 330 330 329 328 329 331 329 329 330 331 331 330 330 330 329 330 330 330 329 329 329 330 331 330 331 333 332 330 330 330 329 329 328 329 330 330 331 332 331 329 329 331 330 329 329 328 329 328 328 328 328 328 328 331 332 332 331 331 331
331 331 331 331 330 329 329 331 332 331 333 334 333 332 331 331 330 330 330 330 331 330 328 329 329 329 330 331 333 332 331 331 330 330 329 328 328 330 332 333 332 332 331 330 331 330 330 331 330 330 330 329 329 329 329 329 330 330 330 330 330 330
331 331 331 331 331 332 333 334 332 332 335 335 332 332 332 331 330 330 330 329 330 330 328 329 329 329 330 331 333 333 331 331 331 330 330 329 329 330 332 333 332 332 331 331 331 331 331 331 330 331 330 329 329 328 329 330 330 330 330 329 330 331
332 332 332 333 333 333 333 332 331 331 333 333 330 330 330 328 328 328 328 328 329 329 328 329 330 330 330 331 332 332 331 331 331 331 330 329 329 330 331 330 330 329 329 331 332 332 332 332 331 330 328 326 326 326 328 329 329 329 329 329 330 329
334 333 333 333 332 332 331 330 329 329 330 330 328 328 327 326 325 325 325 327 328 328 329 329 330 330 330 330 330 330 330 330 331 331 331 330 329 329 329 328 329 329 328 330 332 332 332 332 331 328 326 325 326 327 327 327 327 328 329 329 327 325
334 329 328 330 329 329 328 327 326 326 326 326 325 324 323 323 323 323 324 326 328 328 329 329 329 329 329 328 327 328 329 330 330 330 330 330 328 329 329 327 328 329 328 329 330 330 331 332 331 330 328 327 327 327 327 326 327 328 329 327 325 325
331 324 326 329 328 327 326 324 324 323 323 324 324 323 321 321 321 322 322 324 327 327 329 330 329 329 329 328 328 328 329 330 330 330 329 328 326 327 329 328 327 328 328 329 329 328 329 330 330 330 328 328 328 327 327 327 327 328 328 327 326 326
330 326 330 330 327 326 324 324 325 324 324 325 324 322 322 322 322 321 321 324 326 326 328 329 329 329 329 329 329 328 328 328 329 330 329 328 326 327 329 328 328 329 329 329 329 328 327 328 330 329 328 328 329 328 327 327 327 327 327 326 326 326
332 331 331 327 326 326 324 324 326 326 328 328 326 325 325 322 320 319 320 323 324 324 327 328 328 328 328 328 328 328 329 328 329 328 329 329 329 330 330 329 329 330 330 330 329 329 328 328 330 330 330 330 330 329 328 327 327 327 327 326 325 325
333 331 329 325 326 326 324 325 325 324 325 324 322 322 320 316 317 317 317 319 321 322 324 325 326 327 327 327 327 327 327 327 327 327 327 329 330 329 329 329 329 329 329 329 328 328 327 327 330 331 330 329 330 330 328 328 327 326 326 325 325 326
332 330 328 327 327 326 324 324 322 320 319 317 313 310 309 310 312 313 310 312 316 318 320 322 323 324 325 325 326 326 326 326 326 326 326 327 327 328 328 328 329 328 327 327 327 326 327 327 329 330 329 328 328 329 328 329 328 327 326 324 326 328
332 330 328 328 326 324 323 323 321 318 317 314 309 308 311 310 309 312 311 308 309 312 315 318 319 321 323 322 322 322 322 321 321 323 325 326 325 326 327 328 329 328 326 326 326 327 327 327 327 328 328 327 328 328 328 329 328 327 327 327 327 327
332 331 329 328 324 322 322 321 318 316 315 315 315 316 317 313 313 315 313 308 307 307 312 317 318 320 319 315 315 315 314 314 314 316 321 324 325 326 326 328 329 329 327 326 326 328 328 328 327 327 327 326 326 326 327 328 327 326 326 327 326 326
334 331 329 328 325 324 324 321 317 315 316 319 320 318 313 310 312 312 308 306 307 307 311 317 317 317 317 313 314 317 316 316 316 314 316 320 323 325 326 327 328 329 329 328 328 329 328 326 326 327 326 326 325 324 326 327 325 325 326 325 324 324
335 333 330 328 328 328 325 321 319 318 319 320 316 310 308 307 308 307 306 308 312 312 312 316 316 316 317 315 316 319 319 319 319 317 318 318 320 323 324 324 324 325 327 328 328 329 328 326 327 327 325 326 326 324 325 324 323 325 326 325 323 322
334 334 332 330 330 329 326 321 319 317 317 316 311 306 308 308 306 307 306 307 313 314 311 312 313 314 316 316 316 318 319 319 319 319 321 321 319 320 321 320 322 323 324 326 326 327 327 326 328 327 325 325 325 325 325 325 325 326 326 324 323 321
332 334 333 333 333 330 325 321 318 315 314 312 310 308 308 307 306 307 306 305 308 310 311 310 309 311 315 316 317 319 319 319 318 318 321 321 319 320 320 321 323 323 323 324 323 325 326 327 328 327 327 327 324 324 326 326 326 326 325 324 323 321
332 333 333 333 333 330 324 319 318 317 316 314 311 309 307 307 307 305 306 306 305 307 310 310 308 312 315 315 317 318 318 318 318 318 320 320 320 321 321 322 323 323 323 322 321 323 324 325 326 326 326 327 324 324 326 325 325 325 325 325 323 321
331 332 333 333 332 329 322 317 319 320 319 317 313 309 308 307 307 306 306 306 306 306 308 311 312 313 314 314 315 315 316 317 316 316 316 315 315 317 317 319 320 320 321 321 321 322 323 324 326 327 327 326 325 325 325 325 325 325 325 324 323 322
327 327 330 331 331 328 321 317 320 321 320 318 316 311 308 307 308 309 309 307 307 307 310 316 317 314 311 312 310 309 311 312 310 308 307 306 305 307 312 315 315 317 320 321 321 321 322 324 325 325 324 324 323 323 323 322 323 323 324 322 321 320
323 323 327 330 329 327 321 318 320 322 320 320 319 313 308 309 311 311 310 308 309 310 311 315 315 311 308 307 306 306 307 306 305 304 304 303 303 305 313 317 315 316 318 317 316 314 314 318 321 322 322 320 320 319 318 317 317 318 319 319 319 318
322 324 328 329 328 326 322 318 320 322 322 321 320 314 310 313 312 310 309 307 308 309 310 310 309 306 306 305 305 306 305 305 305 306 305 305 305 305 311 315 313 311 311 309 307 307 307 310 313 314 314 313 312 310 309 309 310 311 313 316 316 316
322 324 327 327 327 326 322 318 319 322 322 322 320 313 311 314 312 309 309 307 306 306 307 307 306 305 305 306 306 306 306 306 306 306 306 305 306 305 306 308 307 305 305 305 305 305 305 305 306 306 305 305 306 305 305 306 307 307 309 312 314 314
323 323 323 324 325 325 321 317 319 323 323 322 321 315 312 314 312 311 310 306 305 305 305 306 305 305 306 306 306 306 306 306 305 305 305 305 306 305 305 305 305 305 305 304 305 304 304 304 303 304 304 305 306 307 307 308 308 306 306 309 312 313

ECMWFFLT2_850_thetae_033.txt.gz
Theta_e
338 338 337 337 337 336 335 335 334 333 334 334 334 333 331 329 326 326 326 326 327 329 330 328 328 328 326 325 325 325 323 322 322 321 321 320 320 320 320 319 317 316 315 316 318 319 321 324 326 327 328 329 327 326 330 335 335 333 333 332 332 329
337 338 338 337 337 336 335 335 333 332 333 332 333 332 330 328 326 328 329 329 330 332 331 330 330 329 328 328 326 325 323 322 322 322 321 320 320 319 319 319 319 318 315 316 318 319 321 322 324 326 328 329 327 329 333 335 334 333 332 331 331 328
338 338 338 335 336 336 334 334 331 331 331 331 332 331 330 328 327 329 329 329 331 333 333 332 332 331 331 330 326 324 323 323 322 322 321 321 320 320 319 319 320 320 317 321 325 326 327 325 323 324 327 327 328 334 335 333 333 333 332 331 330 327
339 337 337 336 335 335 333 332 331 329 328 329 330 330 329 327 327 327 327 328 329 331 331 331 332 331 331 330 327 325 323 323 322 321 321 322 321 321 321 321 322 321 320 325 329 330 330 329 328 326 328 329 330 335 336 333 332 333 332 331 327 325
337 335 334 335 334 332 332 331 328 328 327 328 328 327 328 327 327 326 326 327 327 329 329 328 329 329 329 330 329 327 326 325 325 324 321 326 328 325 325 328 327 326 326 329 331 330 329 330 330 331 332 333 334 334 333 333 333 333 332 330 326 325
336 335 334 334 332 330 331 329 327 328 328 328 328 327 328 327 326 326 327 329 329 331 331 329 329 329 328 329 331 330 329 328 330 329 325 329 333 330 330 332 331 330 330 331 330 329 329 330 330 332 333 334 335 334 333 334 334 333 331 330 328 326
336 336 334 332 332 332 331 328 327 329 329 329 329 327 327 326 326 328 329 330 330 330 331 329 328 328 327 327 329 330 331 330 331 331 327 329 333 332 332 332 332 332 331 331 330 329 328 329 330 331 332 333 335 335 334 334 334 333 330 330 329 326
334 332 331 330 331 331 330 329 328 329 329 329 328 326 326 326 327 329 330 331 331 330 330 329 327 327 327 326 326 328 330 331 331 331 329 330 332 331 332 332 333 332 331 330 330 329 328 328 329 330 331 333 334 334 334 333 333 333 330 330 328 326
331 330 330 331 330 329 328 328 329 329 328 328 329 328 327 326 327 329 330 330 331 330 330 328 326 326 328 328 327 328 330 331 330 331 331 331 332 332 332 332 333 332 331 330 329 329 329 328 328 330 331 331 333 334 333 333 333 333 332 331 328 327
332 332 331 330 330 330 329 329 331 329 327 329 331 328 327 328 328 329 330 330 329 330 329 328 327 327 327 328 329 329 329 330 330 332 332 330 331 332 331 332 332 332 330 330 329 328 329 328 328 330 331 331 333 333 332 333 333 333 332 331 328 327
334 333 332 330 329 329 330 330 330 328 327 330 330 328 328 329 328 330 330 330 329 329 330 330 328 326 325 328 328 328 328 329 329 330 330 330 330 330 328 329 331 332 330 330 329 329 328 328 328 329 330 331 332 332 332 332 332 332 332 332 330 328
334 333 333 332 329 330 332 331 329 328 329 330 330 328 329 329 329 329 329 329 329 329 330 329 329 327 327 328 328 328 328 328 328 329 329 329 329 328 326 326 329 331 330 330 329 329 329 327 328 328 328 330 330 331 332 331 331 332 332 332 332 330
333 332 332 331 330 330 332 331 329 328 328 329 329 329 330 329 329 329 329 329 328 328 329 330 329 328 329 329 329 329 329 328 327 329 329 328 327 326 327 328 329 330 330 330 330 329 328 328 329 328 328 328 328 329 330 330 331 332 331 331 331 330
333 333 333 331 330 331 333 333 331 329 327 327 328 329 331 331 330 330 329 328 328 329 329 329 329 328 330 330 330 330 329 328 328 328 327 327 327 326 328 329 328 328 329 330 330 330 329 329 329 328 328 328 328 329 329 329 330 331 331 330 330 329
333 334 333 332 331 332 334 333 332 331 329 329 330 331 331 331 331 331 330 329 329 330 330 329 329 329 331 332 331 330 330 329 328 328 327 327 328 327 328 328 327 328 328 329 330 330 330 330 329 329 329 329 329 329 328 329 329 330 330 329 328 327
333 334 332 332 331 332 334 334 333 331 330 330 331 331 331 330 330 330 330 330 329 330 330 330 330 329 330 332 331 330 330 330 329 329 328 327 326 326 326 327 326 327 328 328 329 329 330 331 330 331 330 331 332 330 329 329 329 329 328 328 328 327
334 334 334 333 332 333 334 333 332 330 329 329 329 330 330 327 327 328 328 329 329 329 330 330 330 330 330 331 330 330 330 329 328 328 328 325 323 325 325 325 326 328 328 329 330 329 330 331 332 333 332 332 332 331 331 330 329 328 328 328 328 328
334 334 335 334 333 333 333 331 330 329 328 328 327 326 326 324 324 326 327 328 328 328 330 331 330 331 330 330 331 331 330 329 326 327 328 325 323 325 325 324 326 328 328 330 330 329 329 331 332 332 333 332 330 330 332 331 330 328 328 328 327 327
333 333 334 334 333 332 330 329 328 327 326 325 324 322 324 327 326 326 326 326 327 326 328 330 330 331 331 331 331 331 330 329 327 328 328 327 326 327 327 325 326 327 327 329 330 329 330 331 331 331 332 331 330 330 332 331 329 328 327 326 326 326
333 334 335 333 332 330 329 328 326 326 324 323 325 324 325 328 328 326 325 323 325 327 328 329 330 330 330 330 331 331 331 329 328 329 329 328 328 327 328 326 325 326 327 327 327 327 330 331 331 330 332 332 331 332 332 330 328 328 329 328 326 327
332 333 335 332 330 330 330 330 329 329 327 325 327 326 325 328 327 325 324 324 326 328 327 328 329 329 329 330 331 331 331 329 328 328 329 329 328 326 326 326 325 324 325 326 325 327 330 330 330 329 330 332 331 330 330 329 328 329 331 330 328 328
332 331 332 330 328 329 331 331 331 331 330 328 328 327 327 327 323 321 322 324 326 327 328 327 328 329 329 329 330 331 330 329 328 328 328 328 327 326 325 325 325 323 324 324 325 328 330 330 330 329 329 330 329 328 328 328 328 328 329 329 328 327
331 330 331 330 328 329 330 332 331 330 330 330 330 330 328 324 322 323 322 322 322 323 327 328 327 328 329 328 328 329 329 329 330 329 329 328 327 327 326 325 324 324 325 325 325 327 328 329 329 329 329 329 329 328 327 327 326 326 328 327 327 327
330 329 330 332 330 326 328 331 331 331 330 330 328 325 324 322 323 323 323 324 322 320 325 328 327 328 329 328 327 329 330 330 329 328 329 329 327 328 327 324 323 325 326 326 328 329 329 327 327 328 328 328 328 328 327 327 326 326 326 327 327 327
331 329 327 332 332 323 324 327 328 330 327 323 321 321 324 325 324 323 322 323 321 320 325 326 326 327 328 326 325 326 327 328 325 325 328 329 328 329 328 325 324 326 326 327 330 330 329 327 326 328 329 327 328 326 326 327 326 326 325 326 327 326
327 327 324 331 331 323 325 326 324 327 324 322 324 325 326 325 324 324 322 321 319 320 324 325 326 327 326 322 320 315 316 323 321 317 323 327 328 330 329 327 326 326 327 327 328 329 330 329 327 329 329 328 328 326 325 326 327 326 325 326 327 326
324 325 322 329 331 324 324 325 324 327 325 326 327 325 325 325 325 322 316 316 314 315 320 323 325 325 322 316 315 314 314 321 322 317 319 323 326 329 329 328 326 326 326 325 326 327 329 330 329 330 330 329 328 326 325 326 326 326 326 326 326 326
326 324 322 328 331 327 325 326 328 329 328 329 327 323 323 322 320 315 311 314 315 316 321 322 323 323 322 317 318 321 320 323 325 323 322 324 325 327 327 326 325 325 326 325 326 327 328 330 329 329 329 329 328 325 325 324 325 327 326 325 326 325
327 325 326 330 331 328 327 328 330 329 328 328 324 320 321 317 313 310 312 318 322 321 318 318 319 321 323 321 321 324 324 324 325 325 325 325 325 323 322 323 323 324 325 325 325 326 327 328 327 328 328 328 328 326 326 325 325 326 325 325 325 324
326 326 329 331 331 330 329 330 330 329 328 325 322 322 321 315 311 309 311 316 321 320 316 313 313 317 322 324 323 324 324 324 324 325 324 324 324 322 319 319 320 322 323 322 323 324 326 326 326 327 328 328 328 327 327 326 325 326 324 324 324 323
325 325 325 326 328 330 330 330 330 329 327 323 321 322 319 313 312 313 313 315 319 322 321 316 310 313 320 323 324 324 324 324 323 324 324 324 325 323 319 318 320 322 322 321 322 323 325 325 324 326 327 327 327 327 326 325 325 325 324 324 324 323
325 323 322 323 324 326 330 330 329 329 325 318 315 316 315 314 317 318 318 319 320 321 322 319 316 316 319 322 323 323 323 324 323 322 322 323 324 322 322 321 321 322 323 321 323 323 324 324 325 326 327 326 325 324 324 324 325 324 323 323 324 322
325 324 324 324 323 325 329 330 329 329 323 313 311 314 315 316 320 321 321 320 320 320 322 322 323 322 321 321 322 323 323 323 320 318 318 319 321 321 322 323 322 323 323 322 323 324 323 324 325 326 325 324 324 323 322 323 324 324 323 323 322 321
326 326 325 324 324 326 327 328 329 328 323 315 313 315 317 319 321 321 321 320 320 322 323 324 325 324 321 319 318 318 318 316 312 310 310 312 317 321 322 322 323 323 322 322 323 323 322 323 324 324 323 322 321 320 320 320 321 321 321 321 321 319
325 325 326 326 326 327 324 324 327 327 325 322 319 318 320 321 321 320 319 320 321 322 323 324 324 320 315 311 309 308 308 307 306 306 308 312 316 319 320 321 320 319 318 318 318 317 317 318 320 321 319 319 317 317 316 316 316 317 318 319 319 318
324 325 327 327 328 328 325 323 323 324 326 326 323 322 323 321 319 317 318 319 320 322 323 324 321 314 308 306 305 306 306 305 307 308 310 315 317 317 317 317 314 312 312 312 311 312 310 311 313 313 314 315 315 314 314 314 315 315 316 317 317 316
325 326 328 328 328 329 326 322 322 323 325 327 325 324 323 319 315 313 314 316 318 320 322 321 316 309 306 307 307 307 307 306 307 307 309 313 314 313 313 313 309 308 309 308 308 308 307 307 307 308 311 315 316 315 315 314 314 314 315 315 315 316

ECMWFFLT2_850_thetae_036.txt.gz
Theta_e
335 335 334 333 332 333 333 332 331 332 333 333 332 332 331 330 328 326 326 326 325 326 327 327 327 326 326 326 326 326 326 323 321 322 321 321 320 320 320 319 318 316 316 317 318 319 322 325 323 324 326 326 327 330 333 334 333 333 333 332 331 330
336 336 335 334 334 334 333 333 333 333 334 333 331 331 330 328 326 324 325 324 325 328 328 327 325 326 326 327 327 326 325 322 322 322 321 321 320 320 319 319 320 317 315 315 317 319 322 325 324 324 326 326 326 328 331 334 334 332 332 330 329 329
337 337 335 334 335 334 334 333 333 333 333 332 332 330 329 328 325 324 324 326 328 329 328 326 325 326 326 327 327 326 324 323 323 322 321 321 320 321 319 319 319 319 319 318 319 320 322 323 323 324 325 326 326 328 332 334 334 332 331 331 330 328
337 336 334 335 335 333 332 331 331 332 332 331 331 328 327 327 324 323 325 327 329 327 326 326 326 326 327 328 327 326 324 323 322 322 322 321 321 321 320 322 321 321 324 326 326 326 327 328 326 324 325 326 326 330 333 332 333 333 332 331 329 326
336 335 334 334 332 331 330 331 331 331 330 329 329 327 326 326 325 324 324 326 327 325 326 327 326 326 329 329 328 326 325 324 324 325 324 322 326 325 324 327 324 323 326 329 330 330 330 331 331 327 325 326 326 332 334 332 333 333 332 330 328 325
337 335 334 332 330 331 331 330 329 328 327 328 327 325 325 325 325 325 325 325 324 325 325 325 326 328 329 329 329 329 327 327 328 330 328 325 330 331 329 331 329 328 329 329 330 331 331 331 331 329 328 330 331 333 334 333 333 333 333 331 329 326
336 335 334 332 332 334 333 330 328 327 326 326 326 325 325 325 325 325 325 325 324 325 325 325 327 328 329 328 328 330 329 329 329 331 330 326 329 330 328 330 330 330 330 330 330 330 330 330 331 330 331 333 334 334 333 333 333 333 333 331 329 327
334 333 333 333 332 332 331 329 328 329 328 326 326 326 326 326 325 326 326 327 327 327 326 327 327 327 328 327 327 329 330 330 330 330 329 327 327 327 327 329 330 329 329 330 330 329 329 329 330 331 331 333 334 334 333 333 333 333 332 330 329 327
334 332 332 332 332 331 330 330 329 329 328 327 327 327 326 326 326 327 329 328 329 328 327 327 326 326 327 326 327 329 329 329 330 330 328 328 328 328 328 329 329 329 329 329 329 329 329 328 329 331 331 333 334 334 333 332 332 332 331 330 329 326
333 331 332 332 332 332 331 331 329 329 328 327 328 327 326 327 328 330 330 329 328 327 326 326 325 325 326 327 328 329 329 329 329 329 328 328 329 329 329 329 328 328 328 328 328 327 329 328 328 329 330 331 333 333 332 331 332 332 331 331 328 325
332 331 331 331 331 331 331 330 329 329 328 328 329 328 327 328 329 331 330 329 329 327 325 326 326 326 326 327 329 329 330 330 330 329 328 329 330 330 329 327 327 327 326 327 327 327 328 328 327 328 330 330 332 332 330 330 331 331 331 330 328 326
331 331 331 330 330 330 330 329 329 330 328 329 329 328 327 328 328 329 330 330 330 330 328 329 328 327 327 326 328 328 329 328 329 328 327 329 330 329 329 327 326 327 326 326 326 327 327 328 328 328 329 330 331 331 330 330 327 327 329 328 328 327
333 332 331 331 331 331 331 331 330 330 329 329 329 329 328 329 329 329 330 330 330 331 330 329 329 329 328 327 327 328 328 328 328 328 327 328 328 327 326 326 327 326 326 327 326 327 328 327 327 327 328 329 330 330 330 329 326 326 328 328 327 327
336 334 332 331 331 331 331 331 330 331 330 330 329 329 330 330 330 329 330 331 331 331 331 330 330 330 329 328 328 328 328 328 327 327 327 328 327 325 325 327 327 326 326 327 327 327 328 328 327 327 328 328 329 329 328 328 327 328 328 328 328 328
335 335 333 330 330 331 331 330 330 331 330 329 329 329 330 330 331 330 330 331 330 330 330 330 330 329 329 329 329 328 328 328 328 327 327 327 326 325 326 327 326 325 326 326 326 327 328 328 327 327 328 328 328 328 328 328 329 329 328 329 329 328
334 335 332 330 331 331 331 332 332 331 328 328 329 330 331 331 331 330 331 332 330 330 330 330 331 329 329 328 327 326 328 328 327 327 326 326 326 327 327 326 325 325 327 327 326 327 328 327 328 328 327 328 329 328 328 328 329 329 328 328 328 327
335 336 333 331 332 332 332 334 334 332 330 331 331 332 332 331 330 330 331 331 331 330 330 330 330 330 329 329 327 327 329 329 327 327 327 326 326 326 326 325 324 325 326 327 328 328 328 328 329 329 328 330 329 328 329 329 328 329 329 328 328 326
335 336 333 332 332 332 333 333 332 331 331 331 332 332 331 329 329 329 329 330 330 329 329 330 330 329 329 329 328 328 330 329 327 327 326 325 324 323 325 324 324 326 326 328 329 329 329 329 329 329 329 330 327 325 329 329 328 329 329 328 328 327
336 335 334 333 332 332 333 332 330 329 328 329 330 330 329 329 329 328 329 330 330 328 328 329 329 329 328 328 328 328 328 327 325 326 326 324 323 323 324 323 323 325 326 327 329 329 329 329 329 328 329 328 325 323 328 330 329 328 328 327 328 328
335 335 335 334 333 331 332 331 328 327 328 330 331 329 330 331 330 329 329 328 329 329 329 329 330 329 327 327 328 327 327 326 324 326 326 325 324 323 324 324 324 326 326 326 329 329 329 329 328 328 330 329 328 327 328 330 329 329 328 328 328 327
334 335 335 335 333 331 331 329 328 329 328 331 331 328 329 331 330 330 329 327 329 329 329 330 330 329 327 327 327 327 327 326 326 326 327 326 324 324 324 325 324 324 325 326 327 328 327 328 327 327 329 330 329 328 328 329 328 330 330 328 328 325
333 334 335 334 333 333 331 329 330 331 329 329 329 327 329 329 327 327 326 328 330 330 330 330 330 329 328 328 327 327 327 327 327 326 326 326 326 326 325 324 324 324 324 325 326 326 325 326 327 326 327 328 328 328 328 328 328 329 329 328 328 325
333 334 333 332 333 334 332 330 330 331 330 329 328 329 328 326 325 322 322 324 327 328 330 329 330 329 328 329 328 327 327 328 328 327 326 327 326 326 325 324 324 324 323 323 324 325 324 325 326 325 326 328 329 329 328 328 328 328 328 327 328 326
332 333 331 330 332 332 331 330 331 331 330 330 330 329 325 322 325 326 324 325 322 323 327 328 329 329 328 329 329 328 328 329 328 327 327 327 327 326 326 325 324 324 323 322 323 324 325 325 323 323 326 328 328 328 329 328 328 328 326 327 328 327
330 331 329 329 330 329 330 331 330 330 331 329 326 323 319 317 322 326 327 326 323 324 328 328 327 327 327 327 328 328 327 327 326 327 327 326 327 327 327 327 325 325 324 324 325 326 326 325 324 324 327 328 327 327 328 328 327 327 326 326 327 326
329 329 328 327 327 325 326 328 329 329 328 323 318 321 322 319 321 325 326 325 325 327 328 328 327 328 326 323 321 320 322 324 322 323 327 327 327 328 327 327 325 325 325 325 327 327 326 326 326 326 326 328 328 326 326 327 327 326 326 327 326 326
328 328 327 325 324 322 320 323 326 324 321 319 321 326 326 324 325 326 324 321 321 323 325 326 326 325 321 316 313 313 321 326 320 319 324 327 328 329 327 327 326 324 325 326 327 327 328 327 326 325 326 328 328 326 326 327 327 326 326 327 326 325
328 326 324 322 323 322 316 317 322 322 322 325 327 327 325 326 327 322 317 314 314 319 323 324 324 324 321 315 315 317 321 326 323 321 323 325 328 329 328 328 326 325 326 326 327 327 327 328 327 325 326 328 326 325 326 326 327 326 326 326 325 324
327 323 321 321 321 319 314 314 322 327 327 329 328 324 323 323 319 312 311 316 322 323 323 323 324 326 325 320 320 321 321 324 326 325 324 323 325 328 328 328 326 325 326 326 326 327 327 327 328 327 327 328 327 325 325 325 327 327 326 326 324 323
325 322 321 320 319 317 313 314 324 329 329 329 327 322 319 316 310 311 317 323 326 323 319 320 323 325 326 324 325 323 321 324 325 325 324 323 323 324 324 326 326 326 326 325 325 326 326 326 328 328 328 327 326 326 324 324 326 326 326 325 324 323
322 320 320 320 320 317 314 317 324 328 330 329 324 319 317 311 308 313 320 323 324 323 322 322 323 324 325 325 326 324 323 323 323 323 323 323 323 322 321 322 324 325 325 324 325 326 325 326 327 328 327 325 325 326 325 323 323 324 325 324 324 323
322 320 320 320 322 319 316 321 326 328 330 327 322 319 314 308 309 313 316 321 324 325 326 324 322 323 324 324 324 325 325 324 324 323 323 324 324 323 322 321 321 323 323 323 325 326 326 326 327 326 325 325 324 325 325 323 323 323 324 324 323 323
322 321 320 320 322 320 318 324 328 329 328 324 321 318 311 311 316 317 318 322 323 324 325 325 324 323 323 324 324 323 324 323 323 323 323 324 324 323 322 321 321 321 322 323 324 325 326 325 325 324 324 323 324 324 323 322 322 323 324 323 322 322
322 323 322 321 321 321 323 327 330 329 324 317 316 316 314 317 322 322 322 323 322 324 325 325 325 324 323 324 324 324 324 322 320 319 320 322 322 322 322 322 322 321 321 323 324 324 324 324 323 323 322 322 322 322 321 321 322 322 322 321 321 320
323 323 323 321 320 323 326 329 330 329 321 312 311 315 319 322 324 323 322 322 323 324 325 325 324 323 321 321 321 321 319 317 316 314 315 319 322 323 323 323 322 319 319 321 320 319 320 321 321 320 320 319 319 318 319 319 320 320 320 320 320 318
323 323 322 320 320 324 327 329 330 327 319 311 309 316 322 323 322 321 320 322 324 324 325 324 322 319 315 313 314 314 313 313 315 316 316 318 320 321 321 320 319 317 316 316 314 313 314 316 316 316 316 315 315 316 316 316 318 319 319 318 318 316
324 323 322 321 323 325 325 327 330 326 320 314 313 318 323 322 320 317 317 322 323 324 324 321 317 313 309 310 312 312 311 312 314 317 317 316 317 317 317 317 316 315 314 312 311 309 310 312 314 315 315 315 314 314 314 316 317 318 317 317 316 316

ECMWFFLT2_850_thetae_042.txt.gz
Theta_e
332 330 331 332 333 334 334 329 322 326 332 332 333 332 332 331 331 330 329 328 328 329 329 328 327 326 326 327 326 323 321 321 321 322 321 321 321 320 320 318 316 316 317 316 316 317 318 321 330 335 335 335 335 334 334 333 333 333 333 332 330 327
331 330 329 330 331 331 331 325 322 329 333 333 333 332 331 330 329 327 326 326 328 329 328 327 326 327 326 326 326 324 323 322 322 322 322 322 322 321 320 319 318 316 316 317 316 318 318 321 331 335 335 336 334 334 333 333 333 333 332 332 331 328
331 332 330 329 328 329 327 322 324 331 333 333 333 332 330 329 327 325 325 326 327 327 327 326 326 327 327 326 326 324 323 322 322 323 322 322 321 320 320 319 318 316 317 319 320 322 322 325 332 335 335 335 334 333 332 332 333 332 332 332 331 328
331 333 333 330 327 327 324 322 326 331 332 333 333 332 330 328 325 323 325 326 327 327 326 326 327 328 329 327 326 325 323 323 323 322 321 321 320 321 320 319 318 318 320 321 321 323 324 327 333 335 334 335 334 332 331 332 332 332 333 332 330 326
333 333 333 332 328 326 323 323 328 331 332 333 332 331 329 326 323 322 325 327 328 327 326 326 326 328 329 328 326 325 323 323 323 322 321 320 320 321 320 320 320 321 324 324 324 324 324 326 330 333 333 333 334 332 330 329 330 332 333 331 330 327
334 334 334 332 330 327 324 325 329 331 332 332 331 330 328 324 322 322 325 328 329 327 327 327 326 327 328 328 327 327 325 325 326 325 324 324 322 323 323 323 324 326 328 329 329 329 327 326 327 330 332 332 332 331 330 328 329 332 332 331 331 329
335 334 334 333 332 329 326 327 330 332 332 331 330 329 326 323 322 324 326 329 329 327 327 327 326 327 328 328 328 328 328 328 329 328 327 328 327 327 327 326 327 329 330 330 330 330 329 328 327 327 329 329 328 329 330 330 330 332 332 332 332 330
335 334 334 333 333 331 329 329 331 332 332 330 329 328 325 323 323 324 326 328 328 327 326 326 326 327 327 328 327 327 329 329 329 328 327 327 328 328 328 328 329 329 329 329 330 329 329 329 329 329 328 327 327 327 328 330 331 332 332 332 332 330
335 335 333 333 333 332 331 330 332 333 331 330 329 326 325 323 323 324 326 327 326 325 325 324 325 326 326 326 326 325 326 328 326 327 327 326 327 327 327 328 329 329 329 329 330 329 328 329 329 330 329 329 329 329 329 329 330 332 333 332 331 329
335 335 333 333 333 332 332 331 332 333 331 330 328 326 325 324 324 325 325 325 325 325 326 325 326 326 326 325 326 325 325 326 325 326 327 326 327 327 328 328 328 329 329 329 329 329 329 328 328 329 329 330 330 331 332 331 330 332 333 332 330 329
336 335 334 334 333 333 333 332 332 332 330 330 328 326 326 325 325 325 325 325 326 327 326 326 326 326 325 324 325 325 326 326 326 327 327 327 328 328 329 328 327 327 328 329 328 328 328 328 328 328 329 329 330 330 332 331 330 330 331 331 330 328
335 334 334 333 332 331 331 331 331 330 328 329 328 325 326 326 325 325 326 327 327 327 326 326 326 326 325 325 325 325 326 326 326 327 328 328 328 329 329 328 327 327 328 328 328 328 328 328 328 327 327 328 327 328 330 331 330 329 331 331 329 327
333 333 332 331 329 329 330 329 328 328 327 328 327 325 326 326 325 327 328 327 327 327 327 327 326 326 326 326 325 325 326 326 326 327 328 328 327 328 328 328 327 327 327 327 327 328 328 328 328 327 327 326 327 328 329 330 331 330 331 331 328 326
332 332 330 328 328 329 330 328 328 328 327 326 326 325 326 326 326 328 328 327 327 327 327 327 326 326 326 327 326 325 325 325 326 327 327 328 327 327 328 328 327 326 327 326 326 327 327 328 327 327 327 327 328 328 328 329 330 330 330 330 328 326
331 331 329 329 329 329 329 328 329 329 327 326 326 326 326 326 327 328 328 328 328 328 328 328 327 328 327 327 327 326 326 326 327 327 327 328 326 327 328 326 326 327 326 326 326 326 327 328 327 327 327 327 327 327 327 327 328 329 329 329 328 327
332 331 330 330 330 329 329 330 329 328 326 326 327 326 327 327 328 328 328 328 329 329 328 328 328 328 328 328 327 326 326 327 327 328 327 327 325 326 327 326 326 327 326 326 327 327 327 328 327 327 326 326 326 327 327 326 327 328 329 329 327 327
332 332 332 331 331 330 330 330 329 328 327 328 328 327 328 328 329 329 329 329 329 329 328 328 328 328 328 328 327 327 327 327 327 328 327 327 326 326 326 326 327 327 326 327 327 327 328 327 327 327 327 326 326 327 326 325 326 327 328 328 327 327
332 332 331 331 332 331 330 330 329 328 328 329 328 328 329 329 329 329 329 329 329 329 328 328 328 328 328 328 327 327 327 327 327 327 327 326 326 326 326 327 327 326 327 328 327 327 328 327 327 327 327 327 326 326 325 325 326 327 328 328 328 327
332 332 330 329 331 331 331 330 329 330 329 328 328 329 330 329 329 328 328 328 329 329 327 327 327 328 328 328 328 328 328 327 327 327 326 326 326 326 327 327 326 326 327 328 328 328 328 328 328 328 327 327 326 326 326 326 327 327 328 328 328 327
333 333 330 328 329 330 331 331 329 329 328 328 330 330 329 328 327 327 327 327 328 327 326 325 326 327 328 328 328 328 328 327 327 327 327 327 326 326 326 326 325 325 327 328 329 329 329 329 328 328 327 326 327 328 327 327 328 328 327 328 327 326
333 333 329 327 327 327 331 332 330 329 329 330 329 328 327 326 325 326 327 328 327 325 325 325 326 326 327 328 328 327 327 327 327 327 327 326 325 324 325 325 324 325 327 328 329 330 329 329 328 327 326 326 327 328 327 328 328 328 328 328 327 326
333 332 329 327 327 327 330 332 331 330 330 329 327 326 325 324 324 325 327 328 327 327 326 326 326 326 326 327 327 326 325 326 326 325 326 325 324 323 325 325 323 325 328 329 330 330 329 329 329 327 326 326 327 328 328 328 327 328 328 328 327 326
332 331 328 328 329 329 330 331 330 329 328 326 326 327 324 324 324 323 325 327 327 326 327 326 326 326 326 326 326 325 325 326 325 325 326 326 324 324 325 326 325 325 327 329 330 329 329 329 328 328 327 326 327 327 328 328 328 328 328 328 328 327
332 329 326 327 328 328 329 330 329 327 326 326 327 328 326 325 325 324 325 328 327 326 327 327 326 325 326 326 326 326 326 326 326 326 326 326 326 325 326 327 326 326 326 327 329 329 329 329 328 328 327 327 327 326 327 328 328 328 328 327 328 327
331 327 324 325 327 327 328 329 329 329 329 328 328 329 328 326 325 323 324 325 325 326 326 326 327 326 326 326 326 326 326 326 327 327 326 326 327 327 327 327 326 326 325 326 327 327 328 328 328 327 326 326 326 326 326 326 327 328 328 328 327 326
329 326 325 326 327 326 326 328 329 330 330 329 329 328 325 323 323 322 322 322 323 324 323 323 325 326 326 325 326 326 326 326 327 326 326 327 327 327 327 326 326 326 326 325 325 326 326 327 327 327 326 325 325 325 326 324 325 327 327 327 327 326
327 326 327 328 327 326 328 329 329 329 329 326 327 325 321 320 321 321 321 321 320 321 320 320 321 322 322 322 323 325 325 325 326 326 326 327 327 327 327 327 326 326 326 325 325 325 325 325 326 326 325 325 325 325 325 325 325 325 325 326 326 326
325 327 329 329 328 329 330 330 329 329 327 325 325 322 318 318 318 318 317 317 318 320 323 322 322 321 317 315 318 321 321 321 323 324 326 327 327 327 327 327 326 326 325 326 325 325 326 326 326 325 324 325 326 325 325 325 324 323 324 326 326 326
327 329 331 330 330 331 331 330 329 328 327 328 326 319 316 317 316 314 312 312 316 320 324 325 324 322 317 315 318 320 321 320 321 321 323 326 327 327 326 326 325 324 325 325 326 326 327 327 326 326 325 325 326 325 325 326 325 324 324 325 326 325
329 330 331 330 330 331 331 330 330 329 329 328 322 316 318 320 318 315 310 310 313 317 322 325 324 323 321 320 322 324 323 323 323 322 321 322 325 327 326 325 324 324 325 325 325 325 326 327 327 327 326 325 325 325 325 326 325 324 324 324 324 323
330 331 331 331 331 331 331 330 330 330 328 321 316 317 321 322 320 316 311 311 314 315 318 321 322 323 323 324 324 325 325 325 324 324 322 320 321 325 325 324 323 324 324 325 325 325 325 326 327 327 327 326 325 325 324 325 325 325 324 324 323 322
331 332 333 331 331 331 330 330 330 327 321 314 314 317 318 317 316 314 312 314 317 317 317 319 320 322 324 324 324 324 325 325 325 325 323 320 320 322 323 322 322 322 323 324 324 324 325 326 326 326 327 326 326 325 324 324 324 324 324 323 322 321
332 332 333 331 331 331 330 329 326 320 316 314 315 315 314 313 312 312 314 317 319 318 319 320 321 322 324 324 323 323 324 325 325 324 323 321 320 321 320 319 320 320 321 322 323 323 324 325 325 326 326 326 326 326 325 324 324 324 323 322 322 320
332 332 332 332 331 330 328 325 319 318 319 319 317 314 312 310 310 312 315 317 319 319 320 320 320 323 325 325 323 323 323 324 324 323 322 320 319 318 318 318 318 318 319 321 323 323 323 324 324 325 326 325 326 326 325 324 325 324 323 322 321 320
331 332 332 331 331 328 323 320 320 323 324 323 319 313 309 309 310 314 315 317 320 320 321 320 319 320 322 324 324 323 322 321 322 321 321 321 319 316 316 317 317 319 319 321 323 323 323 323 323 324 325 325 325 325 325 324 325 324 323 322 321 318
329 331 330 329 329 324 319 319 323 327 327 326 320 311 308 310 312 315 316 318 321 322 323 321 319 318 318 319 322 322 321 320 321 322 321 321 319 316 317 318 319 320 321 321 323 323 322 322 323 323 324 325 325 324 324 324 324 324 322 321 319 316
329 329 325 324 325 322 320 323 326 328 327 327 321 310 309 312 314 317 318 320 322 323 323 322 320 319 316 315 317 319 320 319 319 321 321 321 318 316 318 320 320 321 321 321 321 322 321 321 321 321 322 323 324 324 324 324 324 323 321 318 317 315

ECMWFFLT2_850_thetae_045.txt.gz
Theta_e
335 337 337 335 334 333 334 335 330 321 321 328 332 333 333 333 333 333 332 332 331 331 330 327 326 327 328 324 321 321 321 320 320 320 320 319 319 318 317 317 317 317 317 321 328 333 334 334 334 334 334 333 333 333 332 330 331 331 331 330 327 322
335 336 336 335 333 333 335 334 325 320 326 331 334 334 333 333 333 332 331 330 330 329 328 327 327 327 328 324 321 321 321 321 321 321 321 320 319 319 319 318 317 316 316 317 322 330 334 333 334 335 334 333 333 333 331 330 331 331 331 330 328 323
334 335 335 334 333 334 336 331 322 323 330 332 334 334 333 332 331 330 328 328 328 328 328 327 327 327 326 325 322 322 322 322 321 322 321 320 320 319 320 319 317 316 316 316 318 326 330 332 334 334 334 334 332 332 330 330 330 331 331 330 327 324
333 334 334 333 333 335 334 326 321 327 332 332 333 333 332 331 329 327 326 326 327 328 327 327 328 328 326 325 324 323 323 322 322 322 321 320 319 319 320 319 318 316 316 316 316 321 326 330 334 334 334 333 332 331 330 330 331 331 331 329 328 326
332 332 333 333 333 334 332 323 322 329 332 332 333 332 331 329 327 325 325 326 326 327 326 326 329 329 326 326 324 324 323 322 322 321 320 321 320 319 319 318 318 317 317 316 316 318 321 328 334 334 334 332 330 330 330 330 331 331 331 330 330 328
332 332 332 332 333 333 329 322 324 330 332 332 332 332 330 327 325 324 325 326 326 326 326 326 327 328 326 326 325 324 323 323 322 321 321 321 321 321 319 319 319 319 318 318 320 322 323 329 334 334 333 331 330 331 330 330 331 331 331 331 331 329
331 331 332 332 331 330 326 322 325 330 332 332 332 331 330 326 324 323 325 327 327 326 326 326 326 326 327 327 327 326 326 326 325 325 324 323 323 322 321 321 321 320 319 320 323 326 327 331 334 333 333 331 330 331 331 331 331 331 331 331 332 329
331 332 332 331 329 328 325 322 326 330 331 332 332 331 329 325 323 323 325 328 328 326 327 326 325 327 327 328 328 328 328 329 328 328 328 327 326 325 325 324 323 322 322 323 325 326 327 330 333 333 333 332 330 330 330 331 331 332 331 331 331 329
332 332 332 332 329 327 325 323 326 329 331 332 331 330 328 324 322 323 326 328 327 325 326 325 326 327 328 327 326 327 328 328 328 328 328 329 328 327 327 326 326 326 326 327 327 327 327 327 328 330 331 330 329 327 328 330 331 331 332 332 331 330
334 333 333 333 330 328 326 324 326 329 331 332 330 329 327 324 322 323 326 328 326 325 324 324 325 327 327 327 325 325 326 326 327 327 327 328 328 328 328 327 327 327 327 328 328 328 328 328 328 328 329 329 328 327 328 330 330 331 332 332 331 329
334 334 334 333 331 330 328 326 327 330 332 331 330 328 326 324 323 323 325 326 325 324 325 324 326 326 325 325 325 324 325 325 325 327 327 327 327 328 328 327 327 327 328 328 329 328 328 328 329 329 329 329 329 329 330 332 331 331 332 331 330 328
334 334 334 333 332 331 330 328 329 331 332 330 329 328 326 324 323 323 324 325 325 325 326 326 326 326 325 325 324 324 326 326 326 327 326 327 328 328 328 327 326 327 328 328 328 328 328 328 328 328 329 329 329 330 330 331 331 331 331 330 330 327
335 334 335 333 332 332 331 331 330 332 331 329 329 326 324 324 324 324 325 325 326 327 327 327 327 326 325 325 325 325 326 326 326 326 327 328 328 328 328 327 326 326 327 329 328 328 328 328 328 328 327 328 328 328 329 331 332 330 330 331 328 326
334 335 335 333 333 333 332 332 331 331 329 328 328 326 324 325 324 325 326 326 327 328 328 328 327 327 326 326 325 324 325 326 326 326 327 328 327 326 327 327 326 325 326 327 327 327 328 328 327 327 327 326 326 327 329 331 331 330 331 330 327 325
333 334 335 333 333 333 332 331 330 328 328 327 327 326 324 325 325 325 327 328 328 328 328 328 328 327 327 326 327 325 325 326 326 326 326 327 327 326 326 327 325 325 326 326 327 327 327 328 327 327 327 327 327 328 329 330 331 331 331 329 327 325
331 333 333 334 333 331 331 330 328 327 327 327 327 326 325 326 326 326 328 329 329 328 328 328 328 328 328 328 328 327 326 326 327 327 327 327 326 326 326 325 324 325 326 325 326 326 327 328 327 327 326 326 327 328 329 330 331 331 330 328 327 325
330 331 332 331 330 329 330 329 328 328 328 326 326 325 325 326 326 326 328 328 329 329 329 329 329 329 329 329 328 328 328 327 327 327 327 326 326 326 326 324 324 326 326 327 326 326 327 327 327 327 326 326 327 327 328 329 330 330 329 327 326 326
331 330 329 328 329 329 330 329 328 329 329 326 325 326 326 326 327 327 328 329 328 329 330 329 328 329 329 329 329 329 328 328 327 327 326 327 327 326 326 325 326 326 327 327 327 327 327 327 327 327 326 326 326 327 327 328 329 329 328 327 326 326
330 329 328 328 329 330 329 329 329 330 328 326 326 327 327 328 328 329 329 329 329 330 330 329 329 329 329 329 329 329 328 327 327 327 327 327 327 327 325 325 326 326 326 328 327 327 327 327 327 327 326 326 326 327 326 326 329 329 328 327 327 326
330 329 328 329 329 330 329 330 330 329 327 327 328 328 328 329 330 330 329 329 329 330 330 329 328 329 329 329 329 329 328 328 328 328 327 327 327 327 326 326 326 326 327 327 327 328 327 327 327 327 326 326 326 326 326 327 328 329 328 327 327 327
329 329 328 329 330 330 329 330 329 329 327 328 328 328 329 330 330 329 328 328 328 329 329 328 328 328 329 329 329 329 328 329 328 328 327 327 327 327 327 326 325 326 327 327 328 328 328 328 327 327 327 326 326 327 327 328 329 329 329 327 327 327
329 329 329 329 330 329 329 329 329 329 329 328 328 328 329 329 328 327 327 328 327 328 328 328 327 327 328 328 328 328 328 328 328 328 328 327 326 326 327 327 325 326 328 328 328 329 329 328 327 327 326 326 327 327 328 329 329 329 328 328 327 327
330 330 329 328 328 328 328 329 329 329 328 328 328 328 328 327 326 326 327 328 327 327 327 327 327 327 327 327 327 327 326 327 327 327 327 327 325 324 326 327 325 325 327 328 329 329 329 329 327 327 326 326 327 327 328 328 328 328 328 328 328 327
331 331 328 326 327 327 327 329 329 329 328 329 328 327 327 326 325 325 326 327 326 327 327 327 327 327 327 327 326 325 326 326 326 325 326 326 325 323 325 326 325 326 327 328 329 329 329 329 328 327 326 326 327 327 327 328 328 328 328 328 328 327
332 332 328 326 326 326 328 330 330 330 330 329 328 327 326 327 325 324 326 327 326 327 327 326 326 326 327 327 326 326 326 326 326 325 326 326 325 324 325 326 325 326 327 327 328 328 328 328 328 327 326 326 326 327 327 326 327 327 327 327 327 326
332 332 329 326 327 328 329 330 330 330 330 327 327 326 325 324 324 324 327 327 326 326 326 326 326 326 326 326 326 326 326 326 326 326 326 326 326 325 326 327 326 326 326 326 327 328 327 327 327 327 327 326 325 326 326 325 326 327 327 327 327 326
332 332 330 327 329 330 330 330 329 328 326 325 325 325 324 324 324 324 325 326 325 325 324 325 326 326 326 326 326 326 326 326 327 327 326 326 326 326 326 326 326 325 325 325 325 326 327 326 326 326 327 326 325 325 325 325 325 326 325 326 326 326
332 332 330 329 329 330 330 329 327 326 324 322 322 322 324 325 324 322 323 323 323 322 321 323 324 324 323 323 324 325 325 326 326 326 326 326 326 327 326 326 326 325 325 324 324 324 325 325 325 325 326 325 324 325 325 325 325 324 325 326 326 326
332 331 329 328 329 329 329 328 326 325 322 321 323 322 321 322 321 320 321 321 320 320 321 322 322 320 317 316 320 322 322 324 325 325 326 326 326 326 326 326 326 325 325 325 324 323 324 324 324 325 325 325 324 324 325 326 325 324 323 324 325 326
331 331 329 327 327 329 329 328 327 324 321 322 324 323 319 318 319 318 318 319 319 321 323 324 322 320 316 314 317 319 319 320 322 323 324 326 326 326 325 325 325 324 324 325 324 324 324 325 325 325 326 325 324 324 325 325 325 324 323 324 325 325
331 330 328 326 327 329 328 328 327 325 324 324 325 324 319 316 316 314 314 316 319 322 323 324 323 321 319 316 316 318 319 318 317 319 320 322 325 326 325 325 324 324 324 324 325 325 325 325 325 325 326 325 324 324 324 324 324 324 324 324 324 324
331 329 327 326 328 329 329 329 328 327 327 326 327 324 318 313 312 312 313 313 316 319 319 321 322 321 321 321 319 319 320 320 318 318 318 318 322 325 325 324 323 323 324 324 325 325 325 325 325 325 325 325 325 325 325 324 325 325 324 324 323 323
331 328 327 328 329 331 331 331 330 329 328 328 328 323 315 313 313 313 312 311 313 315 316 319 321 322 323 324 322 321 321 322 320 319 319 317 319 323 323 323 323 322 323 324 324 324 324 325 325 325 325 324 325 325 325 325 325 324 324 324 323 322
331 328 328 329 331 332 332 331 330 329 329 329 326 319 314 314 313 313 312 312 315 316 318 320 321 322 323 324 323 322 323 323 322 321 320 318 318 320 321 321 321 321 322 323 323 323 324 324 325 325 324 324 325 325 325 325 325 324 324 323 322 322
330 329 329 331 331 331 331 330 330 330 330 328 322 316 315 315 312 312 312 314 317 318 319 321 320 320 322 324 324 323 323 323 323 322 321 318 318 318 318 319 318 319 321 322 322 323 323 324 323 324 324 324 325 325 325 325 325 324 323 323 322 321
331 331 331 331 331 331 331 330 329 329 328 325 320 318 317 314 311 312 313 314 317 320 321 321 320 319 320 322 324 324 323 322 322 322 320 318 317 316 317 316 316 318 320 322 322 323 322 322 322 323 324 324 324 324 324 324 324 324 323 322 322 321
333 332 332 331 331 330 329 330 328 326 325 323 323 322 317 312 311 312 314 315 318 321 321 322 322 320 318 317 320 323 323 321 321 321 320 318 315 315 316 316 317 318 319 321 322 322 321 322 322 322 323 324 324 323 324 324 325 324 323 322 321 320

ECMWFFLT2_850_thetae_048.txt.gz
Theta_e
337 338 337 336 333 332 332 336 334 323 323 331 331 332 333 333 333 332 333 332 331 329 328 328 327 324 320 320 319 319 319 318 318 317 317 319 319 321 324 329 332 332 333 331 327 327 329 330 329 327 327 327 327 327 325 326 327 326 325 322 320 319
337 338 337 336 334 333 334 336 331 322 326 333 332 333 332 332 333 332 332 331 330 329 326 325 326 324 321 320 320 320 320 319 320 319 318 317 318 318 320 323 326 329 332 333 329 328 330 331 331 329 329 329 329 328 326 326 327 328 327 324 322 320
336 337 337 335 334 333 335 335 327 320 328 334 333 333 332 331 332 332 331 330 330 328 326 326 327 326 322 321 321 321 321 320 320 320 320 319 318 317 318 319 320 322 327 331 330 328 330 332 332 332 331 330 330 328 327 326 327 328 327 325 324 322
336 337 336 335 334 333 335 333 324 321 329 333 333 333 332 332 332 331 330 329 329 327 326 327 327 326 324 322 321 322 321 321 321 320 321 320 319 318 317 317 317 318 321 327 330 330 331 332 333 333 332 331 330 329 327 327 328 329 328 327 327 324
336 337 336 335 333 333 335 330 321 323 330 332 332 333 332 332 331 328 328 327 327 326 326 326 326 326 325 323 322 322 322 321 321 321 321 320 320 320 318 316 316 317 318 321 326 330 331 332 333 334 333 332 330 329 328 327 328 329 329 329 328 326
335 336 335 335 333 334 335 328 321 325 331 332 333 332 331 330 328 326 325 326 327 325 325 327 327 326 325 324 323 322 322 322 321 320 320 320 320 320 319 317 317 317 317 318 321 326 330 332 333 334 333 332 330 329 329 329 329 330 329 330 330 328
333 335 335 334 333 334 335 326 322 328 332 332 333 331 330 328 326 325 325 326 326 325 325 327 327 326 326 324 323 322 323 322 322 321 320 320 320 320 319 319 319 318 318 319 319 323 327 329 332 334 333 331 330 330 330 330 330 330 330 330 330 329
332 334 334 334 333 335 334 326 323 330 332 332 333 331 329 327 324 324 325 326 326 325 325 326 327 326 326 325 324 324 326 325 324 325 323 321 321 322 321 321 322 321 322 322 321 322 323 326 331 333 333 331 329 330 330 330 331 331 331 331 330 328
332 332 333 333 333 335 333 326 323 329 332 332 332 331 330 326 323 323 325 326 326 325 325 325 326 327 327 327 327 327 329 328 327 327 327 326 325 324 324 324 324 323 324 325 324 324 324 326 331 333 333 331 330 330 329 330 331 331 332 331 329 327
332 332 332 332 333 333 331 325 323 328 331 332 332 331 330 326 323 323 325 327 326 325 326 325 326 327 327 327 327 328 329 328 328 327 327 328 328 327 327 326 326 325 326 326 326 326 326 328 331 333 333 332 331 329 328 329 330 331 331 330 328 326
332 332 332 332 332 331 329 324 323 327 330 332 332 330 329 326 323 323 326 328 326 325 325 325 326 327 327 327 326 326 327 327 327 327 327 328 328 327 327 327 327 327 327 327 327 327 327 327 329 330 331 330 330 328 328 329 330 331 330 329 328 326
332 332 332 332 331 330 328 325 322 326 330 331 331 329 328 326 323 323 325 327 326 324 324 324 326 327 327 326 325 325 326 326 325 327 327 327 327 327 327 327 328 328 327 327 327 327 328 327 328 328 329 329 329 329 330 330 330 330 330 329 328 326
333 332 332 332 332 330 328 326 323 325 330 331 331 329 327 325 323 323 325 326 325 324 325 325 326 327 326 325 325 324 325 326 326 326 327 327 327 328 328 327 327 327 327 327 327 328 328 328 328 328 328 329 329 329 331 331 330 329 329 329 326 324
334 333 332 333 333 331 330 328 325 326 329 331 331 329 327 325 323 323 324 325 325 326 326 327 326 326 326 325 325 324 325 326 326 326 327 327 328 328 328 327 326 326 326 328 328 328 328 328 328 328 327 327 328 329 330 331 329 328 328 327 325 324
334 334 333 334 333 332 332 330 328 328 330 332 331 329 327 326 324 324 325 325 326 327 327 327 327 326 326 326 326 325 324 325 325 326 326 327 328 327 327 327 326 325 325 327 328 327 328 328 327 327 327 326 327 328 330 330 329 329 328 325 324 324
334 334 334 334 333 332 332 331 330 330 331 332 330 329 327 326 325 325 326 327 328 328 327 327 327 327 326 326 326 326 325 326 325 326 326 326 327 327 327 327 326 325 326 326 326 327 327 328 327 327 326 326 327 328 330 329 329 330 328 326 325 323
335 334 334 334 333 332 332 332 331 331 331 331 331 329 327 326 326 326 326 327 328 328 328 328 328 328 328 327 327 328 327 326 326 326 326 326 326 326 326 326 325 325 325 325 326 326 327 327 327 327 326 326 328 329 330 330 330 329 328 327 327 324
335 334 334 334 333 332 332 332 332 331 331 330 330 329 326 326 327 327 327 328 328 328 328 328 328 328 328 328 328 328 328 327 327 327 327 326 326 326 326 325 324 325 325 326 326 326 327 327 327 326 326 327 328 329 329 329 330 329 327 327 327 325
336 335 334 334 333 333 333 332 331 330 330 329 329 328 326 326 327 327 327 327 328 328 328 329 329 328 328 329 329 328 328 327 327 327 326 326 326 326 326 324 324 325 325 326 327 327 327 327 327 326 326 327 328 330 329 328 329 328 327 327 327 326
336 335 335 334 333 332 332 330 330 329 329 329 328 327 327 327 327 328 328 328 328 328 328 329 329 329 329 329 329 328 328 327 327 327 327 327 326 326 326 325 325 326 326 327 327 327 327 327 327 326 326 326 327 329 328 327 328 328 327 327 327 326
334 334 334 333 333 331 330 330 328 328 329 329 328 327 327 328 328 328 329 328 328 328 328 329 328 328 328 329 329 328 328 328 328 328 328 327 326 326 326 325 325 326 327 327 327 327 327 326 326 326 326 326 327 328 327 327 328 328 327 327 327 326
333 332 332 331 330 330 330 329 328 328 329 328 327 328 328 328 329 329 328 327 327 328 328 327 326 326 327 328 329 328 328 328 328 328 328 326 326 326 326 325 325 325 327 327 327 327 327 326 326 327 326 326 327 327 327 327 327 328 327 327 327 326
332 331 330 329 329 330 329 329 328 328 328 327 328 329 329 329 329 328 327 327 327 326 326 325 325 325 326 326 328 328 328 327 327 327 326 326 326 326 326 326 325 325 327 327 328 328 327 327 327 326 327 326 326 327 328 327 327 328 327 328 327 326
332 330 329 329 329 330 329 329 329 328 328 328 329 329 330 329 328 326 326 327 327 326 326 325 325 326 325 326 327 327 326 326 326 326 325 325 325 325 325 326 325 325 327 327 327 328 328 328 327 327 326 325 325 326 328 327 327 327 327 327 327 326
331 330 329 329 330 330 330 329 329 329 329 329 330 329 329 326 325 325 327 327 326 326 326 326 325 326 326 327 326 325 325 325 325 324 325 324 324 322 323 325 326 325 326 327 327 328 328 328 327 327 326 325 325 326 326 326 326 327 327 326 326 326
330 329 329 330 331 330 329 329 328 329 329 328 329 328 326 324 323 324 326 326 326 326 326 326 325 326 326 326 325 325 325 325 325 325 325 325 324 323 323 325 326 325 326 327 327 328 328 328 328 327 326 325 325 325 325 324 325 326 326 326 326 326
330 329 330 330 330 329 328 328 329 328 328 328 328 326 324 324 323 325 326 326 326 326 326 326 326 325 325 325 325 325 325 325 326 326 326 326 325 324 324 326 326 325 326 326 326 327 328 328 328 327 327 326 325 325 325 324 324 325 326 326 326 325
330 330 331 330 329 328 326 327 329 329 328 328 328 324 323 324 323 324 326 326 325 325 325 325 326 326 325 324 324 325 325 325 326 325 326 326 326 325 325 326 326 325 325 325 325 326 327 327 327 327 327 326 326 325 325 325 325 325 325 326 326 325
332 332 331 330 328 327 327 327 329 329 328 328 327 325 324 325 324 323 324 324 323 322 322 322 323 323 323 323 322 323 324 324 325 325 325 325 326 326 325 326 326 325 325 324 324 324 325 327 326 326 326 326 326 325 324 325 325 325 324 325 325 325
332 333 332 330 328 327 328 329 329 329 328 328 327 326 326 325 324 322 322 322 321 320 318 318 318 318 317 316 315 317 319 321 324 325 325 325 325 325 325 325 326 326 325 324 324 323 323 325 325 325 325 325 325 325 324 325 325 325 324 323 323 324
332 333 332 331 329 329 329 330 330 328 327 326 326 326 325 323 322 322 321 321 319 318 317 317 317 316 315 311 310 313 317 319 322 323 324 325 325 325 325 325 325 324 325 325 324 324 323 323 323 324 325 325 325 325 324 324 325 324 324 323 323 324
331 331 332 331 330 329 329 330 329 327 326 326 325 325 322 319 320 319 318 317 316 316 317 318 318 318 316 314 312 315 318 318 319 321 322 322 324 325 325 324 324 322 323 323 323 324 323 323 323 324 324 325 326 325 325 325 325 324 324 323 322 324
330 331 332 332 329 328 328 329 328 326 326 326 326 324 321 317 316 315 313 314 314 315 317 318 320 319 318 317 316 318 320 320 320 321 321 320 321 324 325 324 323 322 323 323 323 323 324 324 325 324 324 325 325 325 325 325 326 325 324 323 323 323
331 331 333 331 328 326 327 328 327 325 326 326 327 326 323 318 313 311 312 312 313 316 318 319 320 320 319 319 319 319 320 321 322 322 322 320 319 323 324 324 323 322 322 323 323 323 324 324 325 325 325 325 325 325 325 325 325 325 324 324 323 322
332 331 333 332 329 327 328 327 325 326 327 327 327 327 324 316 312 312 313 313 316 318 320 320 320 319 320 320 320 320 320 321 322 322 322 321 320 322 323 322 322 321 321 321 322 322 323 323 324 325 325 325 325 325 325 325 325 325 324 324 323 322
331 331 333 332 330 329 329 327 327 329 329 328 328 327 322 315 314 315 315 315 317 319 320 320 319 318 319 320 320 321 322 321 322 323 322 321 319 320 321 321 320 320 320 321 321 322 322 323 324 325 325 325 325 326 325 325 325 325 324 324 323 322
330 331 332 329 328 328 327 328 330 330 329 329 328 325 319 316 316 315 314 315 317 320 321 321 321 320 319 318 318 320 322 321 321 321 321 320 318 317 318 319 318 318 320 321 321 322 322 323 323 324 325 325 325 325 325 325 325 324 323 323 323 322